EA1FJG Weather Reports


Display with metric or nautical units.
time (UTC)temp
F
wind
direction
speed
MPH
gust
MPH
rain 1hr
in
rain 24hr
in
rain mn
in
humidity
%
barometer
mb
20260906081125 65 42 1.0 2.0 0.00 0.00 0.00 99 1022.6
20260906081003 65 39 1.0 2.0 0.00 0.00 0.00 99 1022.5
20260906080903 66 42 1.0 2.0 0.00 0.00 0.00 99 1022.5
20260906080803 66 44 1.0 2.0 0.00 0.00 0.00 99 1022.6
20260906080703 66 51 1.0 2.0 0.00 0.00 0.00 99 1022.4
20260906080603 66 51 1.0 2.0 0.00 0.00 0.00 99 1022.4
20260906080503 65 52 1.0 2.0 0.00 0.00 0.00 99 1022.4
20260906080424 65 53 1.0 2.0 0.00 0.00 0.00 99 1022.3
20260906080303 65 53 1.0 2.0 0.00 0.00 0.00 99 1022.5
20260906080203 65 54 1.0 2.0 0.00 0.00 0.00 99 1022.3
20260906080103 65 53 1.0 2.0 0.00 0.00 0.00 99 1022.4
20260906080003 65 50 1.0 2.0 0.00 0.00 0.00 99 1022.5
20260906075903 65 49 1.0 2.0 0.00 0.00 0.00 99 1022.3
20260906075803 65 49 1.0 2.0 0.00 0.00 0.00 99 1022.3
20260906075724 65 50 1.0 2.0 0.00 0.00 0.00 99 1022.3
20260906075603 65 49 1.0 2.0 0.00 0.00 0.00 99 1022.3
20260906075503 65 48 1.0 2.0 0.00 0.00 0.00 99 1022.2
20260906075403 65 48 1.0 2.0 0.00 0.00 0.00 99 1022.3
20260906075306 65 47 1.0 2.0 0.00 0.00 0.00 99 1022.2
20260906075224 65 48 1.0 2.0 0.00 0.00 0.00 99 1022.3
20260906075103 65 48 1.0 2.0 0.00 0.00 0.00 99 1022.3
20260906075003 65 48 1.0 2.0 0.00 0.00 0.00 99 1022.3
20260906074903 65 48 1.0 2.0 0.00 0.00 0.00 99 1022.3
20260906074824 65 47 1.0 2.0 0.00 0.00 0.00 99 1022.3
20260906074703 65 45 0.0 2.0 0.00 0.00 0.00 99 1022.2
20260906074603 65 45 0.0 2.0 0.00 0.00 0.00 99 1022.3
20260906074503 65 45 0.0 2.0 0.00 0.00 0.00 99 1022.2
20260906074424 65 39 0.0 1.0 0.00 0.00 0.00 99 1022.1
20260906074303 65 37 0.0 1.0 0.00 0.00 0.00 99 1022.1
20260906074203 65 36 0.0 1.0 0.00 0.00 0.00 99 1022.3
20260906074124 65 35 0.0 1.0 0.00 0.00 0.00 99 1022.1
20260906074024 65 34 0.0 1.0 0.00 0.00 0.00 99 1022.2
20260906073903 64 34 0.0 1.0 0.00 0.00 0.00 99 1022.0
20260906073803 64 34 0.0 1.0 0.00 0.00 0.00 99 1022.2
20260906073703 64 34 0.0 1.0 0.00 0.00 0.00 99 1022.0
20260906073603 64 34 0.0 1.0 0.00 0.00 0.00 99 1022.0
20260906073503 64 34 0.0 1.0 0.00 0.00 0.00 99 1022.0
20260906073403 64 34 0.0 1.0 0.00 0.00 0.00 99 1022.2
20260906073324 64 34 0.0 1.0 0.00 0.00 0.00 99 1022.2
20260906073203 64 32 0.0 1.0 0.00 0.00 0.00 99 1022.1
20260906073124 64 32 0.0 1.0 0.00 0.00 0.00 99 1022.1
20260906073003 64 32 0.0 1.0 0.00 0.00 0.00 99 1022.0
20260906072924 64 33 0.0 1.0 0.00 0.00 0.00 99 1022.0
20260906072803 64 33 0.0 1.0 0.00 0.00 0.00 99 1021.9
20260906072703 64 32 0.0 1.0 0.00 0.00 0.00 99 1022.2
20260906072603 64 32 0.0 1.0 0.00 0.00 0.00 99 1022.1
20260906072503 64 27 0.0 1.0 0.00 0.00 0.00 99 1022.1
20260906072403 64 21 0.0 1.0 0.00 0.00 0.00 99 1022.0
20260906072305 64 21 0.0 1.0 0.00 0.00 0.00 99 1021.9
20260906072203 64 21 0.0 1.0 0.00 0.00 0.00 99 1021.9
20260906072124 64 16 0.0 1.0 0.00 0.00 0.00 99 1022.0
20260906072003 64 20 0.0 1.0 0.00 0.00 0.00 99 1022.0
20260906071903 64 21 0.0 1.0 0.00 0.00 0.00 99 1021.9
20260906071803 64 21 0.0 1.0 0.00 0.00 0.00 99 1021.9
20260906071703 64 24 0.0 1.0 0.00 0.00 0.00 99 1021.9
20260906071603 64 26 1.0 1.0 0.00 0.00 0.00 99 1021.8
20260906071503 64 28 1.0 1.0 0.00 0.00 0.00 99 1022.0
20260906071403 64 31 1.0 1.0 0.00 0.00 0.00 99 1021.9
20260906071303 64 32 1.0 1.0 0.00 0.00 0.00 99 1021.8
20260906071224 64 32 1.0 1.0 0.00 0.00 0.00 99 1021.8
20260906071103 64 36 1.0 1.0 0.00 0.00 0.00 99 1021.9
20260906071003 64 36 1.0 1.0 0.00 0.00 0.00 99 1021.8
20260906070903 64 36 1.0 1.0 0.00 0.00 0.00 99 1021.8
20260906070803 64 35 0.0 1.0 0.00 0.00 0.00 99 1021.7
20260906070703 64 35 0.0 1.0 0.00 0.00 0.00 99 1021.8
20260906070603 64 34 0.0 1.0 0.00 0.00 0.00 99 1021.7
20260906070525 64 34 0.0 1.0 0.00 0.00 0.00 99 1021.7
20260906070424 64 34 0.0 1.0 0.00 0.00 0.00 99 1021.7
20260906070303 64 34 0.0 1.0 0.00 0.00 0.00 99 1022.0
20260906070224 63 37 0.0 2.0 0.00 0.00 0.00 99 1021.9
20260906070003 63 39 1.0 2.0 0.00 0.00 0.00 99 1021.8
20260906065904 63 38 1.0 2.0 0.00 0.00 0.00 99 1021.7
20260906065803 63 38 1.0 2.0 0.00 0.00 0.00 99 1021.6
20260906065703 63 38 1.0 2.0 0.00 0.00 0.00 99 1021.5
20260906065603 63 38 1.0 2.0 0.00 0.00 0.00 99 1021.8
20260906065503 63 38 1.0 2.0 0.00 0.00 0.00 99 1021.6
20260906065403 63 36 1.0 2.0 0.00 0.00 0.00 99 1021.5
20260906065305 63 34 1.0 2.0 0.00 0.00 0.00 99 1021.7
20260906065203 63 31 1.0 2.0 0.00 0.00 0.00 99 1021.5
20260906065103 63 28 1.0 1.0 0.00 0.00 0.00 99 1021.5
20260906065024 63 28 1.0 1.0 0.00 0.00 0.00 99 1021.5
20260906064903 63 25 1.0 1.0 0.00 0.00 0.00 99 1021.4
20260906064803 63 24 1.0 1.0 0.00 0.00 0.00 99 1021.4
20260906064703 63 22 1.0 1.0 0.00 0.00 0.00 99 1021.4
20260906064603 63 22 1.0 1.0 0.00 0.00 0.00 99 1021.4
20260906064503 63 20 0.0 1.0 0.00 0.00 0.00 99 1021.4
20260906064424 63 17 0.0 1.0 0.00 0.00 0.00 99 1021.2
20260906064303 63 16 0.0 1.0 0.00 0.00 0.00 99 1021.2
20260906064224 63 16 0.0 1.0 0.00 0.00 0.00 99 1021.0
20260906064103 63 16 0.0 1.0 0.00 0.00 0.00 99 1021.2
20260906064003 63 16 0.0 1.0 0.00 0.00 0.00 99 1021.0
20260906063903 63 15 0.0 1.0 0.00 0.00 0.00 99 1021.1
20260906063803 63 15 0.0 1.0 0.00 0.00 0.00 99 1021.0
20260906063703 63 15 0.0 1.0 0.00 0.00 0.00 99 1021.1
20260906063603 63 13 0.0 1.0 0.00 0.00 0.00 99 1021.0
20260906063503 63 13 0.0 1.0 0.00 0.00 0.00 99 1021.1
20260906063403 63 0 0.0 0.0 0.00 0.00 0.00 99 1021.1
20260906063303 63 0 0.0 0.0 0.00 0.00 0.00 99 1021.2
20260906063224 63 0 0.0 0.0 0.00 0.00 0.00 99 1021.2
20260906063124 63 0 0.0 0.0 0.00 0.00 0.00 99 1021.0
20260906063003 63 0 0.0 0.0 0.00 0.00 0.00 99 1021.1
20260906062903 63 0 0.0 0.0 0.00 0.00 0.00 99 1021.0
20260906062803 63 0 0.0 0.0 0.00 0.00 0.00 99 1020.9
20260906062703 63 0 0.0 0.0 0.00 0.00 0.00 99 1020.7
20260906062624 63 0 0.0 0.0 0.00 0.00 0.00 99 1020.8
20260906062503 63 0 0.0 0.0 0.00 0.00 0.00 99 1020.9
20260906062403 63 12 0.0 1.0 0.00 0.00 0.00 99 1020.8
20260906062306 63 12 0.0 1.0 0.00 0.00 0.00 99 1020.8
20260906062203 63 12 0.0 1.0 0.00 0.00 0.00 99 1020.7
20260906062124 63 12 0.0 1.0 0.00 0.00 0.00 99 1020.7
20260906062003 63 12 0.0 1.0 0.00 0.00 0.00 99 1020.6
20260906061903 63 12 0.0 1.0 0.00 0.00 0.00 99 1020.8
20260906061803 63 12 0.0 1.0 0.00 0.00 0.00 99 1020.8
20260906061703 63 12 0.0 1.0 0.00 0.00 0.00 99 1020.6
20260906061603 63 12 0.0 1.0 0.00 0.00 0.00 99 1020.7
20260906061503 63 12 0.0 1.0 0.00 0.00 0.00 99 1020.4
20260906061403 63 12 0.0 1.0 0.00 0.00 0.00 99 1020.5
20260906061304 63 0 0.0 0.0 0.00 0.00 0.00 99 1020.6
20260906061203 63 0 0.0 0.0 0.00 0.00 0.00 99 1020.6
20260906061103 63 0 0.0 0.0 0.00 0.00 0.00 99 1020.6
20260906061003 63 0 0.0 0.0 0.00 0.00 0.00 99 1020.5
20260906060903 63 0 0.0 0.0 0.00 0.00 0.00 99 1020.3
20260906060803 63 0 0.0 0.0 0.00 0.00 0.00 99 1020.5
20260906060703 63 0 0.0 0.0 0.00 0.00 0.00 99 1020.3
20260906060624 63 0 0.0 0.0 0.00 0.00 0.00 99 1020.5
20260906060503 63 0 0.0 0.0 0.00 0.00 0.00 99 1020.5
20260906060403 63 0 0.0 0.0 0.00 0.00 0.00 99 1020.2
20260906060303 63 0 0.0 0.0 0.00 0.00 0.00 99 1020.5
20260906060203 63 0 0.0 0.0 0.00 0.00 0.00 99 1020.6
20260906060124 63 13 0.0 1.0 0.00 0.00 0.00 99 1020.6
20260906060003 63 13 0.0 1.0 0.00 0.00 0.00 99 1020.5
20260906055903 63 13 0.0 1.0 0.00 0.00 0.00 99 1020.3
20260906055825 63 13 0.0 1.0 0.00 0.00 0.00 99 1020.3
20260906055703 63 13 0.0 1.0 0.00 0.00 0.00 99 1020.4
20260906055604 63 13 0.0 1.0 0.00 0.00 0.00 99 1020.4
20260906055503 63 13 0.0 1.0 0.00 0.00 0.00 99 1020.4
20260906055403 63 13 0.0 1.0 0.00 0.00 0.00 99 1020.4
20260906055306 63 13 0.0 1.0 0.00 0.00 0.00 99 1020.4
20260906055204 63 13 0.0 1.0 0.00 0.00 0.00 99 1020.2
20260906055103 63 13 0.0 1.0 0.00 0.00 0.00 99 1020.2
20260906055003 63 13 0.0 1.0 0.00 0.00 0.00 99 1020.2
20260906054903 63 13 0.0 1.0 0.00 0.00 0.00 99 1020.3
20260906054824 63 13 0.0 1.0 0.00 0.00 0.00 99 1020.2
20260906054703 63 13 0.0 1.0 0.00 0.00 0.00 99 1020.3
20260906054624 63 13 0.0 1.0 0.00 0.00 0.00 99 1020.1
20260906054503 63 13 0.0 1.0 0.00 0.00 0.00 99 1020.2
20260906054424 63 0 0.0 0.0 0.00 0.00 0.00 99 1020.2
20260906054303 63 0 0.0 0.0 0.00 0.00 0.00 99 1020.2
20260906054224 63 0 0.0 0.0 0.00 0.00 0.00 99 1020.0
20260906054103 63 0 0.0 0.0 0.00 0.00 0.00 99 1020.2
20260906054003 63 0 0.0 0.0 0.00 0.00 0.00 99 1020.2
20260906053924 63 38 0.0 1.0 0.00 0.00 0.00 99 1020.2
20260906053824 63 34 0.0 1.0 0.00 0.00 0.00 99 1020.1
20260906053703 63 34 0.0 1.0 0.00 0.00 0.00 99 1020.1
20260906053603 63 34 0.0 1.0 0.00 0.00 0.00 99 1020.2
20260906053503 63 34 0.0 1.0 0.00 0.00 0.00 99 1020.3
20260906053403 63 34 0.0 1.0 0.00 0.00 0.00 99 1020.1
20260906053303 63 34 0.0 1.0 0.00 0.00 0.00 99 1020.2
20260906053203 63 34 0.0 1.0 0.00 0.00 0.00 99 1020.0
20260906053103 63 34 0.0 1.0 0.00 0.00 0.00 99 1020.2
20260906053003 63 34 0.0 1.0 0.00 0.00 0.00 99 1020.2
20260906052903 63 34 0.0 1.0 0.00 0.00 0.00 99 1019.9
20260906052803 63 12 0.0 2.0 0.00 0.00 0.00 99 1020.0
20260906052703 63 7 0.0 2.0 0.00 0.00 0.00 99 1020.0
20260906052603 63 7 0.0 2.0 0.00 0.00 0.00 99 1020.0
20260906052524 63 6 1.0 2.0 0.00 0.00 0.00 99 1020.0
20260906052403 63 5 1.0 2.0 0.00 0.00 0.00 99 1019.9
20260906052305 63 5 1.0 2.0 0.00 0.00 0.00 99 1020.0
20260906052203 63 5 1.0 2.0 0.00 0.00 0.00 99 1020.1
20260906052103 63 3 1.0 2.0 0.00 0.00 0.00 99 1019.9
20260906052003 63 2 1.0 2.0 0.00 0.00 0.00 99 1020.0
20260906051903 63 3 1.0 2.0 0.00 0.00 0.00 99 1019.9
20260906051803 63 2 1.0 2.0 0.00 0.00 0.00 99 1019.8
20260906051703 63 2 1.0 2.0 0.00 0.00 0.00 99 1019.8
20260906051603 63 1 1.0 2.0 0.00 0.00 0.00 99 1019.8
20260906051503 63 2 1.0 2.0 0.00 0.00 0.00 99 1019.7
20260906051403 63 2 1.0 2.0 0.00 0.00 0.00 99 1019.8
20260906051303 63 360 2.0 2.0 0.00 0.00 0.00 99 1019.9
20260906051203 63 359 2.0 2.0 0.00 0.00 0.00 98 1019.9
20260906051124 63 2 2.0 3.0 0.00 0.00 0.00 98 1019.8
20260906051003 63 3 2.0 3.0 0.00 0.00 0.00 98 1019.5
20260906050924 63 2 2.0 4.0 0.00 0.00 0.00 98 1019.7
20260906050803 64 359 2.0 4.0 0.00 0.00 0.00 98 1019.6
20260906050703 64 359 2.0 4.0 0.00 0.00 0.00 98 1019.5
20260906050603 64 360 2.0 4.0 0.00 0.00 0.00 98 1019.4
20260906050524 64 359 2.0 4.0 0.00 0.00 0.00 98 1019.4
20260906050424 64 359 2.0 4.0 0.00 0.00 0.00 98 1019.5
20260906050303 64 1 2.0 4.0 0.00 0.00 0.00 98 1019.5
20260906050203 64 360 3.0 4.0 0.00 0.00 0.00 98 1019.6
20260906050003 64 359 3.0 4.0 0.00 0.00 0.00 98 1019.4
20260906045903 64 360 3.0 4.0 0.00 0.00 0.00 98 1019.6
20260906045824 64 3 2.0 4.0 0.00 0.00 0.00 98 1019.4
20260906045703 64 3 2.0 4.0 0.00 0.00 0.00 98 1019.5
20260906045603 64 3 2.0 4.0 0.00 0.00 0.00 98 1019.3
20260906045524 64 4 2.0 4.0 0.00 0.00 0.00 98 1019.4
20260906045403 64 4 2.0 4.0 0.00 0.00 0.00 98 1019.4
20260906045305 64 3 2.0 4.0 0.00 0.00 0.00 98 1019.4
20260906045203 64 5 2.0 4.0 0.00 0.00 0.00 98 1019.4
20260906045103 64 3 2.0 3.0 0.00 0.00 0.00 98 1019.5
20260906045003 64 4 2.0 3.0 0.00 0.00 0.00 98 1019.3
20260906044903 64 6 2.0 3.0 0.00 0.00 0.00 98 1019.4
20260906044803 64 6 2.0 3.0 0.00 0.00 0.00 97 1019.4
20260906044704 64 5 2.0 3.0 0.00 0.00 0.00 97 1019.4
20260906044603 64 5 2.0 3.0 0.00 0.00 0.00 97 1019.4
20260906044503 64 5 2.0 3.0 0.00 0.00 0.00 97 1019.3
20260906044403 64 4 2.0 3.0 0.00 0.00 0.00 97 1019.1
20260906044303 64 2 2.0 4.0 0.00 0.00 0.00 97 1019.2
20260906044203 64 3 2.0 4.0 0.00 0.00 0.00 97 1019.1
20260906044103 64 4 2.0 4.0 0.00 0.00 0.00 97 1019.2
20260906044003 64 5 2.0 4.0 0.00 0.00 0.00 97 1019.1
20260906043903 64 1 2.0 4.0 0.00 0.00 0.00 97 1019.2
20260906043803 64 358 2.0 4.0 0.00 0.00 0.00 97 1019.2
20260906043703 65 357 2.0 4.0 0.00 0.00 0.00 97 1019.2
20260906043624 65 357 2.0 4.0 0.00 0.00 0.00 97 1019.2
20260906043504 65 357 2.0 4.0 0.00 0.00 0.00 97 1019.1
20260906043403 64 356 2.0 4.0 0.00 0.00 0.00 97 1019.2
20260906043303 64 357 2.0 4.0 0.00 0.00 0.00 97 1019.2
20260906043203 65 357 2.0 4.0 0.00 0.00 0.00 97 1019.2
20260906043103 65 355 2.0 4.0 0.00 0.00 0.00 96 1019.3
20260906043024 65 355 2.0 4.0 0.00 0.00 0.00 96 1019.3
20260906042903 65 355 2.0 4.0 0.00 0.00 0.00 96 1019.1
20260906042803 65 357 2.0 3.0 0.00 0.00 0.00 96 1019.0
20260906042703 65 359 2.0 3.0 0.00 0.00 0.00 96 1019.0
20260906042603 65 359 2.0 3.0 0.00 0.00 0.00 96 1019.0
20260906042503 65 358 2.0 3.0 0.00 0.00 0.00 96 1019.1
20260906042403 65 357 1.0 3.0 0.00 0.00 0.00 96 1019.0
20260906042306 65 360 1.0 3.0 0.00 0.00 0.00 96 1019.0
20260906042203 65 1 1.0 2.0 0.00 0.00 0.00 96 1018.9
20260906042103 65 1 1.0 2.0 0.00 0.00 0.00 96 1019.0
20260906042004 65 2 1.0 2.0 0.00 0.00 0.00 96 1019.2
20260906041903 65 2 1.0 2.0 0.00 0.00 0.00 96 1018.9
20260906041803 65 4 0.0 2.0 0.00 0.00 0.00 96 1019.0
20260906041703 65 5 0.0 1.0 0.00 0.00 0.00 96 1019.0
20260906041603 65 4 1.0 2.0 0.00 0.00 0.00 96 1019.1
20260906041524 65 4 1.0 2.0 0.00 0.00 0.00 96 1019.1
20260906041403 65 5 1.0 2.0 0.00 0.00 0.00 96 1018.9
20260906041303 65 5 1.0 2.0 0.00 0.00 0.00 96 1019.0
20260906041203 65 3 1.0 2.0 0.00 0.00 0.00 96 1019.0
20260906041103 65 3 1.0 2.0 0.00 0.00 0.00 96 1019.0
20260906041003 65 2 1.0 2.0 0.00 0.00 0.00 96 1018.8
20260906040903 65 1 1.0 2.0 0.00 0.00 0.00 96 1018.9
20260906040803 65 360 1.0 2.0 0.00 0.00 0.00 96 1019.0
20260906040703 65 360 1.0 2.0 0.00 0.00 0.00 96 1019.0
20260906040603 65 360 1.0 2.0 0.00 0.00 0.00 96 1018.9
20260906040503 65 359 1.0 1.0 0.00 0.00 0.00 96 1018.8
20260906040403 65 358 1.0 1.0 0.00 0.00 0.00 96 1019.0
20260906040303 65 358 1.0 1.0 0.00 0.00 0.00 96 1018.9
20260906040203 65 360 0.0 1.0 0.00 0.00 0.00 96 1019.1
20260906040004 65 9 1.0 1.0 0.00 0.00 0.00 96 1019.0
20260906035903 65 19 1.0 2.0 0.00 0.00 0.00 96 1019.0
20260906035803 65 19 1.0 2.0 0.00 0.00 0.00 96 1019.0
20260906035703 65 20 1.0 2.0 0.00 0.00 0.00 96 1019.1
20260906035603 65 24 1.0 2.0 0.00 0.00 0.00 96 1019.1
20260906035503 65 28 1.0 2.0 0.00 0.00 0.00 96 1018.9
20260906035403 65 32 1.0 2.0 0.00 0.00 0.00 96 1019.0
20260906035306 65 35 1.0 2.0 0.00 0.00 0.00 95 1019.0
20260906035204 65 37 1.0 2.0 0.00 0.00 0.00 95 1019.0
20260906035103 65 38 1.0 2.0 0.00 0.00 0.00 95 1018.9
20260906035024 66 37 1.0 2.0 0.00 0.00 0.00 95 1019.1
20260906034924 66 38 1.0 2.0 0.00 0.00 0.00 95 1018.9
20260906034803 66 35 0.0 2.0 0.00 0.00 0.00 95 1018.8
20260906034703 66 36 0.0 2.0 0.00 0.00 0.00 95 1018.7
20260906034624 66 36 0.0 2.0 0.00 0.00 0.00 95 1018.7
20260906034503 66 30 0.0 1.0 0.00 0.00 0.00 95 1019.0
20260906034403 66 28 0.0 1.0 0.00 0.00 0.00 95 1019.0
20260906034303 66 27 0.0 1.0 0.00 0.00 0.00 94 1019.1
20260906034203 66 27 0.0 1.0 0.00 0.00 0.00 94 1019.1
20260906034104 66 27 0.0 1.0 0.00 0.00 0.00 94 1019.1
20260906034003 66 26 0.0 1.0 0.00 0.00 0.00 94 1019.0
20260906033903 66 27 0.0 1.0 0.00 0.00 0.00 94 1019.0
20260906033803 66 27 0.0 1.0 0.00 0.00 0.00 94 1018.9
20260906033724 66 28 0.0 1.0 0.00 0.00 0.00 94 1018.9
20260906033603 66 28 0.0 1.0 0.00 0.00 0.00 94 1018.9
20260906033523 66 28 0.0 1.0 0.00 0.00 0.00 94 1018.8
20260906033424 66 28 0.0 1.0 0.00 0.00 0.00 94 1019.0
20260906033323 66 28 0.0 1.0 0.00 0.00 0.00 94 1019.1
20260906033203 66 29 0.0 1.0 0.00 0.00 0.00 93 1019.2
20260906033103 66 30 0.0 1.0 0.00 0.00 0.00 93 1019.2
20260906033024 66 30 0.0 1.0 0.00 0.00 0.00 93 1019.1
20260906032902 66 30 0.0 1.0 0.00 0.00 0.00 93 1019.2
20260906032802 66 30 0.0 1.0 0.00 0.00 0.00 93 1019.3
20260906032703 66 30 0.0 1.0 0.00 0.00 0.00 93 1019.3
20260906032602 66 30 0.0 1.0 0.00 0.00 0.00 93 1019.2
20260906032523 66 30 0.0 1.0 0.00 0.00 0.00 93 1019.2
20260906032403 66 31 0.0 1.0 0.00 0.00 0.00 93 1019.2
20260906032306 66 31 0.0 1.0 0.00 0.00 0.00 93 1019.3
20260906032224 66 31 0.0 1.0 0.00 0.00 0.00 93 1019.3
20260906032103 66 26 0.0 1.0 0.00 0.00 0.00 93 1019.3
20260906032002 66 22 0.0 1.0 0.00 0.00 0.00 93 1019.3
20260906031902 66 20 0.0 1.0 0.00 0.00 0.00 92 1019.4
20260906031803 66 20 0.0 1.0 0.00 0.00 0.00 92 1019.4
20260906031703 66 20 0.0 1.0 0.00 0.00 0.00 92 1019.5
20260906031603 66 20 0.0 1.0 0.00 0.00 0.00 92 1019.4
20260906031503 66 17 0.0 1.0 0.00 0.00 0.00 92 1019.5
20260906031403 66 9 0.0 1.0 0.00 0.00 0.00 92 1019.5
20260906031303 66 9 0.0 1.0 0.00 0.00 0.00 92 1019.6
20260906031203 66 9 0.0 1.0 0.00 0.00 0.00 92 1019.4
20260906031103 66 10 0.0 1.0 0.00 0.00 0.00 92 1019.6
20260906031024 66 0 0.0 0.0 0.00 0.00 0.00 92 1019.6
20260906030903 66 0 0.0 0.0 0.00 0.00 0.00 92 1019.5
20260906030803 66 11 0.0 1.0 0.00 0.00 0.00 92 1019.4
20260906030702 66 11 0.0 1.0 0.00 0.00 0.00 92 1019.3
20260906030603 66 11 0.0 1.0 0.00 0.00 0.00 92 1019.4
20260906030524 66 11 0.0 1.0 0.00 0.00 0.00 92 1019.6
20260906030402 66 11 0.0 1.0 0.00 0.00 0.00 92 1019.5
20260906030303 66 11 0.0 1.0 0.00 0.00 0.00 92 1019.3
20260906030203 66 11 0.0 1.0 0.00 0.00 0.00 92 1019.5
20260906030024 66 25 0.0 1.0 0.00 0.00 0.00 92 1019.4
20260906025903 66 25 0.0 1.0 0.00 0.00 0.00 92 1019.3
20260906025804 66 25 0.0 1.0 0.00 0.00 0.00 92 1019.3
20260906025703 66 40 0.0 1.0 0.00 0.00 0.00 92 1019.3
20260906025624 66 40 0.0 1.0 0.00 0.00 0.00 92 1019.3
20260906025503 67 40 0.0 1.0 0.00 0.00 0.00 91 1019.3
20260906025424 67 40 0.0 1.0 0.00 0.00 0.00 91 1019.3
20260906025306 67 40 0.0 1.0 0.00 0.00 0.00 91 1019.3
20260906025224 67 30 0.0 1.0 0.00 0.00 0.00 91 1019.4
20260906025103 67 30 0.0 1.0 0.00 0.00 0.00 91 1019.3
20260906025003 67 30 0.0 1.0 0.00 0.00 0.00 90 1019.4
20260906024903 67 21 0.0 1.0 0.00 0.00 0.00 90 1019.5
20260906024803 67 10 0.0 1.0 0.00 0.00 0.00 90 1019.3
20260906024702 67 10 0.0 1.0 0.00 0.00 0.00 90 1019.2
20260906024602 67 10 0.0 1.0 0.00 0.00 0.00 90 1019.3
20260906024502 67 6 0.0 1.0 0.00 0.00 0.00 90 1019.3
20260906024402 67 3 0.0 1.0 0.00 0.00 0.00 89 1019.1
20260906024302 67 3 0.0 1.0 0.00 0.00 0.00 89 1019.3
20260906024203 67 359 0.0 1.0 0.00 0.00 0.00 89 1019.4
20260906024124 67 359 0.0 1.0 0.00 0.00 0.00 89 1019.4
20260906024003 67 360 0.0 1.0 0.00 0.00 0.00 89 1019.3
20260906023903 67 359 0.0 2.0 0.00 0.00 0.00 89 1019.3
20260906023802 67 359 0.0 2.0 0.00 0.00 0.00 89 1019.5
20260906023703 67 358 1.0 2.0 0.00 0.00 0.00 89 1019.6
20260906023602 67 1 1.0 2.0 0.00 0.00 0.00 89 1019.3
20260906023502 68 1 1.0 2.0 0.00 0.00 0.00 89 1019.4
20260906023402 68 1 1.0 2.0 0.00 0.00 0.00 89 1019.5
20260906023303 68 1 1.0 2.0 0.00 0.00 0.00 89 1019.6
20260906023202 68 1 1.0 2.0 0.00 0.00 0.00 89 1019.5
20260906023103 68 1 2.0 2.0 0.00 0.00 0.00 88 1019.5
20260906023024 68 1 2.0 2.0 0.00 0.00 0.00 89 1019.6
20260906022903 68 1 2.0 2.0 0.00 0.00 0.00 89 1019.4
20260906022803 68 2 2.0 3.0 0.00 0.00 0.00 89 1019.1
20260906022702 68 1 2.0 3.0 0.00 0.00 0.00 89 1019.2
20260906022603 68 360 2.0 3.0 0.00 0.00 0.00 89 1019.3
20260906022503 68 359 2.0 3.0 0.00 0.00 0.00 89 1019.2
20260906022402 68 359 2.0 3.0 0.00 0.00 0.00 89 1019.4
20260906022324 68 360 2.0 3.0 0.00 0.00 0.00 89 1019.5
20260906022203 68 359 2.0 3.0 0.00 0.00 0.00 89 1019.4
20260906022102 68 358 2.0 3.0 0.00 0.00 0.00 89 1019.4
20260906022003 68 358 2.0 3.0 0.00 0.00 0.00 89 1019.3
20260906021903 68 357 3.0 3.0 0.00 0.00 0.00 89 1019.3
20260906021803 68 357 2.0 3.0 0.00 0.00 0.00 89 1019.2
20260906021702 68 357 2.0 3.0 0.00 0.00 0.00 89 1019.5
20260906021603 68 358 2.0 3.0 0.00 0.00 0.00 88 1019.4
20260906021503 68 358 2.0 3.0 0.00 0.00 0.00 88 1019.4
20260906021403 68 358 2.0 3.0 0.00 0.00 0.00 88 1019.5
20260906021324 68 358 2.0 3.0 0.00 0.00 0.00 88 1019.5
20260906021202 68 358 2.0 3.0 0.00 0.00 0.00 88 1019.4
20260906021102 68 358 2.0 3.0 0.00 0.00 0.00 88 1019.4
20260906021002 68 358 2.0 3.0 0.00 0.00 0.00 88 1019.4
20260906020902 68 360 1.0 3.0 0.00 0.00 0.00 88 1019.5
20260906020802 68 1 1.0 2.0 0.00 0.00 0.00 89 1019.5
20260906020703 68 1 1.0 2.0 0.00 0.00 0.00 89 1019.5
20260906020602 68 1 1.0 2.0 0.00 0.00 0.00 89 1019.6
20260906020503 68 1 1.0 2.0 0.00 0.00 0.00 90 1019.5
20260906020403 68 2 1.0 2.0 0.00 0.00 0.00 90 1019.7
20260906020324 68 3 1.0 1.0 0.00 0.00 0.00 90 1019.5
20260906020203 68 3 1.0 1.0 0.00 0.00 0.00 91 1019.5
20260906020003 67 3 1.0 1.0 0.00 0.00 0.00 93 1019.5
20260906015902 67 4 1.0 1.0 0.00 0.00 0.00 93 1019.6
20260906015803 67 3 0.0 1.0 0.00 0.00 0.00 93 1019.6
20260906015703 67 3 1.0 1.0 0.00 0.00 0.00 93 1019.5
20260906015602 67 4 1.0 1.0 0.00 0.00 0.00 93 1019.4
20260906015503 67 4 1.0 1.0 0.00 0.00 0.00 94 1019.5
20260906015403 67 4 1.0 1.0 0.00 0.00 0.00 94 1019.6
20260906015305 67 7 1.0 1.0 0.00 0.00 0.00 94 1019.6
20260906015224 67 12 1.0 1.0 0.00 0.00 0.00 94 1019.6
20260906015103 67 15 1.0 1.0 0.00 0.00 0.00 94 1019.6
20260906015003 67 17 1.0 1.0 0.00 0.00 0.00 94 1019.5
20260906014903 67 20 1.0 1.0 0.00 0.00 0.00 94 1019.6
20260906014803 67 24 1.0 1.0 0.00 0.00 0.00 95 1019.6
20260906014703 67 27 1.0 1.0 0.00 0.00 0.00 95 1019.5
20260906014623 67 29 1.0 1.0 0.00 0.00 0.00 95 1019.4
20260906014503 67 32 0.0 1.0 0.00 0.00 0.00 95 1019.4
20260906014403 67 36 0.0 1.0 0.00 0.00 0.00 95 1019.4
20260906014303 67 36 0.0 1.0 0.00 0.00 0.00 95 1019.4
20260906014224 67 36 0.0 1.0 0.00 0.00 0.00 96 1019.5
20260906014124 67 36 0.0 1.0 0.00 0.00 0.00 96 1019.4
20260906014003 67 36 0.0 1.0 0.00 0.00 0.00 96 1019.5
20260906013903 67 36 0.0 1.0 0.00 0.00 0.00 96 1019.4
20260906013803 67 36 0.0 1.0 0.00 0.00 0.00 96 1019.3
20260906013703 67 37 0.0 1.0 0.00 0.00 0.00 96 1019.6
20260906013603 67 36 0.0 1.0 0.00 0.00 0.00 95 1019.4
20260906013503 67 36 0.0 1.0 0.00 0.00 0.00 95 1019.6
20260906013424 67 36 0.0 1.0 0.00 0.00 0.00 95 1019.8
20260906013303 67 36 0.0 1.0 0.00 0.00 0.00 95 1019.5
20260906013224 67 37 1.0 2.0 0.00 0.00 0.00 95 1019.7
20260906013103 67 37 1.0 2.0 0.00 0.00 0.00 95 1019.7
20260906013003 67 38 1.0 2.0 0.00 0.00 0.00 95 1019.6
20260906012903 67 39 1.0 2.0 0.00 0.00 0.00 95 1019.8
20260906012803 67 39 1.0 2.0 0.00 0.00 0.00 95 1019.7
20260906012703 67 38 1.0 2.0 0.00 0.00 0.00 95 1019.6
20260906012603 67 38 1.0 2.0 0.00 0.00 0.00 95 1019.6
20260906012503 67 38 1.0 2.0 0.00 0.00 0.00 95 1019.6
20260906012403 67 37 1.0 2.0 0.00 0.00 0.00 94 1019.7
20260906012324 67 37 1.0 2.0 0.00 0.00 0.00 94 1019.7
20260906012203 68 34 1.0 2.0 0.00 0.00 0.00 94 1019.5
20260906012103 67 34 1.0 2.0 0.00 0.00 0.00 94 1019.6
20260906012003 68 31 1.0 2.0 0.00 0.00 0.00 94 1019.7
20260906011903 68 25 1.0 1.0 0.00 0.00 0.00 94 1019.5
20260906011824 68 25 1.0 1.0 0.00 0.00 0.00 94 1019.5
20260906011703 68 25 1.0 1.0 0.00 0.00 0.00 94 1019.7
20260906011603 68 27 1.0 1.0 0.00 0.00 0.00 94 1019.6
20260906011503 68 28 1.0 1.0 0.00 0.00 0.00 94 1019.7
20260906011403 68 27 1.0 1.0 0.00 0.00 0.00 94 1019.6
20260906011303 68 27 1.0 1.0 0.00 0.00 0.00 94 1019.8
20260906011203 68 25 1.0 1.0 0.00 0.00 0.00 94 1019.5
20260906011103 68 23 1.0 1.0 0.00 0.00 0.00 93 1019.7
20260906011003 68 23 1.0 1.0 0.00 0.00 0.00 93 1019.7
20260906010924 68 16 1.0 2.0 0.00 0.00 0.00 93 1019.8
20260906010803 68 17 1.0 2.0 0.00 0.00 0.00 93 1019.7
20260906010703 68 18 1.0 2.0 0.00 0.00 0.00 93 1019.7
20260906010603 68 16 1.0 2.0 0.00 0.00 0.00 92 1019.8
20260906010524 68 7 1.0 2.0 0.00 0.00 0.00 92 1019.7
20260906010403 68 360 1.0 2.0 0.00 0.00 0.00 91 1019.9
20260906010303 68 355 1.0 2.0 0.00 0.00 0.00 91 1019.7
20260906010224 68 353 1.0 2.0 0.00 0.00 0.00 90 1019.7
20260906010124 69 354 1.0 2.0 0.00 0.00 0.00 90 1019.8
20260906010024 69 2 1.0 2.0 0.00 0.00 0.00 90 1019.6
20260906005903 69 6 1.0 2.0 0.00 0.00 0.00 89 1019.7
20260906005803 69 8 1.0 2.0 0.00 0.00 0.00 89 1019.7
20260906005703 69 3 1.0 2.0 0.00 0.00 0.00 88 1019.8
20260906005603 69 360 1.0 2.0 0.00 0.00 0.00 87 1019.6
20260906005503 69 9 1.0 1.0 0.00 0.00 0.00 87 1019.6
20260906005403 69 12 1.0 1.0 0.00 0.00 0.00 86 1019.7
20260906005306 69 17 1.0 1.0 0.00 0.00 0.00 86 1019.6
20260906005203 69 15 1.0 2.0 0.00 0.00 0.00 86 1019.5
20260906005103 69 10 1.0 2.0 0.00 0.00 0.00 86 1019.5
20260906005024 69 8 1.0 2.0 0.00 0.00 0.00 86 1019.6
20260906004903 69 4 1.0 2.0 0.00 0.00 0.00 86 1019.5
20260906004803 69 4 1.0 2.0 0.00 0.00 0.00 86 1019.6
20260906004703 69 4 1.0 2.0 0.00 0.00 0.00 87 1019.6
20260906004603 69 4 1.0 2.0 0.00 0.00 0.00 87 1019.6
20260906004503 69 5 1.0 2.0 0.00 0.00 0.00 88 1019.8
20260906004403 69 5 1.0 2.0 0.00 0.00 0.00 88 1019.6
20260906004303 69 4 1.0 2.0 0.00 0.00 0.00 88 1019.6
20260906004203 69 4 1.0 2.0 0.00 0.00 0.00 88 1019.6
20260906004103 69 7 1.0 2.0 0.00 0.00 0.00 88 1019.8
20260906004003 69 4 1.0 2.0 0.00 0.00 0.00 87 1019.5
20260906003924 69 9 1.0 2.0 0.00 0.00 0.00 87 1019.8
20260906003803 69 13 1.0 2.0 0.00 0.00 0.00 87 1019.8
20260906003703 69 14 1.0 2.0 0.00 0.00 0.00 88 1019.6
20260906003603 69 18 1.0 2.0 0.00 0.00 0.00 88 1019.6
20260906003524 69 18 1.0 2.0 0.00 0.00 0.00 88 1019.6
20260906003403 69 28 1.0 2.0 0.00 0.00 0.00 88 1019.6
20260906003303 69 28 1.0 2.0 0.00 0.00 0.00 88 1019.7
20260906003224 69 36 1.0 2.0 0.00 0.00 0.00 88 1019.6
20260906003124 69 39 1.0 2.0 0.00 0.00 0.00 88 1019.6
20260906003003 69 45 1.0 2.0 0.00 0.00 0.00 88 1019.6
20260906002903 69 46 1.0 2.0 0.00 0.00 0.00 88 1019.7
20260906002803 69 52 1.0 2.0 0.00 0.00 0.00 88 1019.5
20260906002703 69 51 1.0 2.0 0.00 0.00 0.00 88 1019.7
20260906002603 69 52 1.0 2.0 0.00 0.00 0.00 88 1019.6
20260906002503 69 52 1.0 2.0 0.00 0.00 0.00 89 1019.5
20260906002403 69 52 1.0 2.0 0.00 0.00 0.00 88 1019.6
20260906002324 69 52 1.0 2.0 0.00 0.00 0.00 88 1019.6
20260906002203 69 51 1.0 2.0 0.00 0.00 0.00 88 1019.7
20260906002103 69 52 1.0 2.0 0.00 0.00 0.00 88 1019.7
20260906002024 69 52 1.0 2.0 0.00 0.00 0.00 88 1019.7
20260906001903 69 53 2.0 2.0 0.00 0.00 0.00 88 1019.7
20260906001803 69 53 2.0 2.0 0.00 0.00 0.00 88 1019.7
20260906001724 69 53 1.0 2.0 0.00 0.00 0.00 88 1019.7
20260906001603 69 60 2.0 3.0 0.00 0.00 0.00 88 1019.7
20260906001503 69 64 2.0 3.0 0.00 0.00 0.00 88 1019.7
20260906001403 69 64 2.0 3.0 0.00 0.00 0.00 88 1019.7
20260906001303 69 61 1.0 3.0 0.00 0.00 0.00 88 1019.9
20260906001203 69 63 1.0 3.0 0.00 0.00 0.00 88 1019.6
20260906001103 69 64 1.0 3.0 0.00 0.00 0.00 88 1019.5
20260906001003 69 64 1.0 3.0 0.00 0.00 0.00 88 1020.0
20260906000924 69 64 1.0 3.0 0.00 0.00 0.00 89 1019.8
20260906000803 69 65 1.0 3.0 0.00 0.00 0.00 89 1019.8
20260906000724 69 61 1.0 3.0 0.00 0.00 0.00 90 1019.9
20260906000603 69 55 1.0 2.0 0.00 0.00 0.00 90 1019.8
20260906000503 69 48 1.0 2.0 0.00 0.00 0.00 90 1019.8
20260906000403 69 47 1.0 2.0 0.00 0.00 0.00 90 1019.7
20260906000303 69 48 1.0 2.0 0.00 0.00 0.00 91 1019.8
20260906000226 69 49 1.0 2.0 0.00 0.00 0.00 91 1019.8
20260906000003 69 52 1.0 3.0 0.00 0.00 0.00 92 1019.7
20260905235903 68 51 1.0 3.0 0.00 0.00 0.00 92 1019.9
20260905235803 68 49 1.0 3.0 0.00 0.00 0.00 93 1019.8
20260905235703 68 48 1.0 3.0 0.00 0.00 0.00 93 1019.9
20260905235603 68 48 1.0 3.0 0.00 0.00 0.00 93 1019.8
20260905235503 68 50 1.0 3.0 0.00 0.00 0.00 94 1020.0
20260905235403 68 51 1.0 3.0 0.00 0.00 0.00 94 1019.8
20260905235306 68 51 1.0 3.0 0.00 0.00 0.00 94 1019.9
20260905235203 68 40 1.0 3.0 0.00 0.00 0.00 94 1019.8
20260905235103 68 39 1.0 3.0 0.00 0.00 0.00 95 1019.9
20260905235003 68 36 1.0 3.0 0.00 0.00 0.00 95 1019.7
20260905234903 68 23 1.0 2.0 0.00 0.00 0.00 95 1019.9
20260905234803 69 30 1.0 2.0 0.00 0.00 0.00 95 1020.0
20260905234703 69 29 1.0 2.0 0.00 0.00 0.00 95 1019.9
20260905234624 69 29 1.0 2.0 0.00 0.00 0.00 95 1020.0
20260905234503 69 29 1.0 2.0 0.00 0.00 0.00 95 1020.0
20260905234403 69 38 1.0 3.0 0.00 0.00 0.00 95 1020.1
20260905234303 69 30 1.0 3.0 0.00 0.00 0.00 95 1020.0
20260905234203 69 38 1.0 3.0 0.00 0.00 0.00 95 1020.0
20260905234103 69 37 1.0 3.0 0.00 0.00 0.00 95 1020.1
20260905234003 69 40 1.0 3.0 0.00 0.00 0.00 95 1020.1
20260905233924 69 42 1.0 3.0 0.00 0.00 0.00 95 1020.0
20260905233803 69 44 1.0 3.0 0.00 0.00 0.00 95 1020.0
20260905233703 69 39 1.0 3.0 0.00 0.00 0.00 94 1020.1
20260905233603 69 41 1.0 3.0 0.00 0.00 0.00 94 1020.0
20260905233503 69 41 1.0 3.0 0.00 0.00 0.00 94 1020.2
20260905233403 69 32 1.0 2.0 0.00 0.00 0.00 94 1020.0
20260905233303 69 21 1.0 2.0 0.00 0.00 0.00 94 1019.9
20260905233203 69 39 1.0 2.0 0.00 0.00 0.00 94 1020.0
20260905233103 69 48 0.0 2.0 0.00 0.00 0.00 94 1020.0
20260905233024 69 49 0.0 2.0 0.00 0.00 0.00 94 1019.9
20260905232903 69 44 0.0 2.0 0.00 0.00 0.00 94 1020.0
20260905232803 69 45 0.0 2.0 0.00 0.00 0.00 94 1020.0
20260905232703 69 36 0.0 1.0 0.00 0.00 0.00 94 1019.9
20260905232603 69 36 0.0 1.0 0.00 0.00 0.00 95 1020.0
20260905232524 69 39 0.0 1.0 0.00 0.00 0.00 95 1019.6
20260905232403 69 40 0.0 1.0 0.00 0.00 0.00 95 1019.9
20260905232306 69 42 0.0 1.0 0.00 0.00 0.00 95 1019.6
20260905232203 69 42 0.0 1.0 0.00 0.00 0.00 95 1020.0
20260905232103 69 41 1.0 1.0 0.00 0.00 0.00 95 1019.8
20260905232003 69 42 1.0 1.0 0.00 0.00 0.00 95 1020.0
20260905231903 69 44 1.0 2.0 0.00 0.00 0.00 95 1019.8
20260905231803 69 43 1.0 2.0 0.00 0.00 0.00 95 1020.1
20260905231724 69 44 1.0 2.0 0.00 0.00 0.00 95 1020.0
20260905231603 69 44 1.0 2.0 0.00 0.00 0.00 95 1020.0
20260905231524 69 44 1.0 2.0 0.00 0.00 0.00 95 1020.0
20260905231403 69 43 1.0 2.0 0.00 0.00 0.00 95 1020.0
20260905231303 69 43 1.0 2.0 0.00 0.00 0.00 95 1020.2
20260905231203 69 42 1.0 2.0 0.00 0.00 0.00 95 1020.0
20260905231124 69 42 1.0 2.0 0.00 0.00 0.00 95 1020.0
20260905231003 69 42 1.0 2.0 0.00 0.00 0.00 95 1020.0
20260905230903 70 40 1.0 2.0 0.00 0.00 0.00 94 1020.1
20260905230803 70 41 1.0 2.0 0.00 0.00 0.00 94 1020.0
20260905230703 70 41 1.0 2.0 0.00 0.00 0.00 94 1020.2
20260905230624 70 40 1.0 2.0 0.00 0.00 0.00 94 1020.1
20260905230503 70 40 1.0 2.0 0.00 0.00 0.00 94 1020.2
20260905230403 70 40 1.0 2.0 0.00 0.00 0.00 93 1020.0
20260905230303 70 40 1.0 2.0 0.00 0.00 0.00 93 1020.0
20260905230203 70 40 1.0 2.0 0.00 0.00 0.00 93 1020.0
20260905230003 70 38 1.0 2.0 0.00 0.00 0.00 93 1020.1
20260905225903 70 37 1.0 2.0 0.00 0.00 0.00 93 1020.2
20260905225803 70 38 0.0 2.0 0.00 0.00 0.00 93 1019.9
20260905225703 70 37 0.0 2.0 0.00 0.00 0.00 93 1020.0
20260905225603 70 32 0.0 1.0 0.00 0.00 0.00 93 1020.2
20260905225503 70 32 0.0 1.0 0.00 0.00 0.00 92 1020.1
20260905225404 70 32 0.0 1.0 0.00 0.00 0.00 92 1020.0
20260905225305 70 44 0.0 2.0 0.00 0.00 0.00 92 1019.8
20260905225203 70 46 0.0 2.0 0.00 0.00 0.00 92 1020.0
20260905225103 70 43 0.0 2.0 0.00 0.00 0.00 92 1019.9
20260905225003 70 49 0.0 2.0 0.00 0.00 0.00 92 1019.9
20260905224903 70 43 0.0 2.0 0.00 0.00 0.00 92 1019.9
20260905224803 71 39 0.0 2.0 0.00 0.00 0.00 92 1020.0
20260905224703 71 38 0.0 2.0 0.00 0.00 0.00 92 1020.1
20260905224603 71 37 1.0 2.0 0.00 0.00 0.00 92 1020.0
20260905224503 71 37 1.0 2.0 0.00 0.00 0.00 92 1020.0
20260905224403 71 36 1.0 2.0 0.00 0.00 0.00 92 1020.0
20260905224303 71 36 1.0 2.0 0.00 0.00 0.00 92 1020.2
20260905224203 71 27 0.0 1.0 0.00 0.00 0.00 92 1020.1
20260905224103 71 27 0.0 1.0 0.00 0.00 0.00 92 1020.0
20260905224003 71 29 0.0 1.0 0.00 0.00 0.00 92 1019.8
20260905223903 71 29 0.0 1.0 0.00 0.00 0.00 92 1020.0
20260905223803 71 30 0.0 1.0 0.00 0.00 0.00 92 1020.0
20260905223703 71 31 0.0 1.0 0.00 0.00 0.00 92 1019.8
20260905223603 71 34 0.0 1.0 0.00 0.00 0.00 92 1019.9
20260905223524 71 34 0.0 1.0 0.00 0.00 0.00 92 1019.9
20260905223403 71 38 0.0 1.0 0.00 0.00 0.00 92 1019.9
20260905223303 71 39 0.0 1.0 0.00 0.00 0.00 92 1019.8
20260905223203 71 39 0.0 1.0 0.00 0.00 0.00 92 1019.9
20260905223103 71 38 0.0 1.0 0.00 0.00 0.00 92 1019.9
20260905223003 71 38 0.0 1.0 0.00 0.00 0.00 92 1019.9
20260905222903 71 39 0.0 1.0 0.00 0.00 0.00 92 1020.0
20260905222803 71 39 0.0 1.0 0.00 0.00 0.00 92 1019.9
20260905222703 71 38 0.0 1.0 0.00 0.00 0.00 92 1020.1
20260905222603 71 38 1.0 1.0 0.00 0.00 0.00 92 1019.8
20260905222503 71 37 1.0 1.0 0.00 0.00 0.00 92 1020.1
20260905222403 71 38 1.0 1.0 0.00 0.00 0.00 93 1020.0
20260905222306 71 39 1.0 1.0 0.00 0.00 0.00 93 1019.8
20260905222203 71 39 1.0 1.0 0.00 0.00 0.00 93 1019.9
20260905222103 71 39 1.0 1.0 0.00 0.00 0.00 93 1020.0
20260905222003 71 40 1.0 1.0 0.00 0.00 0.00 93 1020.0
20260905221903 71 39 1.0 1.0 0.00 0.00 0.00 93 1020.1
20260905221803 71 40 1.0 1.0 0.00 0.00 0.00 94 1020.1
20260905221703 71 46 1.0 2.0 0.00 0.00 0.00 94 1020.2
20260905221603 71 47 1.0 2.0 0.00 0.00 0.00 94 1019.9
20260905221503 71 52 1.0 2.0 0.00 0.00 0.00 94 1020.1
20260905221424 71 52 1.0 2.0 0.00 0.00 0.00 94 1020.1
20260905221303 71 55 1.0 3.0 0.00 0.00 0.00 95 1020.0
20260905221203 71 56 1.0 3.0 0.00 0.00 0.00 95 1020.1
20260905221103 71 58 1.0 3.0 0.00 0.00 0.00 95 1020.0
20260905221003 71 58 1.0 3.0 0.00 0.00 0.00 95 1020.0
20260905220903 71 59 1.0 3.0 0.00 0.00 0.00 95 1020.0
20260905220803 71 60 1.0 3.0 0.00 0.00 0.00 95 1019.9
20260905220703 71 59 1.0 3.0 0.00 0.00 0.00 95 1019.9
20260905220603 71 55 1.0 3.0 0.00 0.00 0.00 96 1019.9
20260905220503 71 56 1.0 3.0 0.00 0.00 0.00 96 1020.0
20260905220404 71 52 1.0 3.0 0.00 0.00 0.00 96 1020.0
20260905220303 71 47 1.0 2.0 0.00 0.00 0.00 96 1020.0
20260905220203 71 49 1.0 2.0 0.00 0.00 0.00 96 1020.0
20260905220103 71 56 1.0 3.0 0.00 0.00 0.00 96 1020.2
20260905220003 71 57 1.0 3.0 0.00 0.00 0.00 96 1020.1
20260905215903 71 56 1.0 3.0 0.00 0.00 0.00 96 1020.1
20260905215803 71 56 1.0 3.0 0.00 0.00 0.00 96 1020.1
20260905215703 71 55 1.0 3.0 0.00 0.00 0.00 96 1020.1
20260905215603 71 55 1.0 3.0 0.00 0.00 0.00 96 1019.9
20260905215504 71 55 1.0 3.0 0.00 0.00 0.00 96 1020.1
20260905215424 71 55 1.0 3.0 0.00 0.00 0.00 96 1020.0
20260905215305 71 56 1.0 3.0 0.00 0.00 0.00 96 1020.0
20260905215203 71 54 1.0 3.0 0.00 0.00 0.00 96 1020.2
20260905215103 71 54 1.0 3.0 0.00 0.00 0.00 96 1020.2
20260905215003 71 48 1.0 2.0 0.00 0.00 0.00 96 1020.0
20260905214903 71 44 1.0 2.0 0.00 0.00 0.00 96 1020.0
20260905214803 71 44 1.0 2.0 0.00 0.00 0.00 96 1020.1
20260905214703 71 45 1.0 2.0 0.00 0.00 0.00 96 1020.1
20260905214624 71 42 0.0 1.0 0.00 0.00 0.00 96 1020.1
20260905214503 72 47 0.0 2.0 0.00 0.00 0.00 96 1020.1
20260905214403 72 51 1.0 2.0 0.00 0.00 0.00 96 1020.2
20260905214324 72 51 1.0 2.0 0.00 0.00 0.00 96 1020.1
20260905214203 72 52 1.0 2.0 0.00 0.00 0.00 96 1020.1
20260905214103 72 53 1.0 2.0 0.00 0.00 0.00 95 1020.2
20260905214004 72 54 1.0 2.0 0.00 0.00 0.00 95 1020.3
20260905213903 72 54 1.0 2.0 0.00 0.00 0.00 95 1020.3
20260905213803 72 54 1.0 2.0 0.00 0.00 0.00 95 1020.2
20260905213703 72 54 1.0 2.0 0.00 0.00 0.00 95 1020.2
20260905213603 72 55 1.0 2.0 0.00 0.00 0.00 95 1020.2
20260905213503 72 54 1.0 2.0 0.00 0.00 0.00 95 1020.2
20260905213403 72 54 0.0 2.0 0.00 0.00 0.00 95 1020.1
20260905213303 72 51 0.0 2.0 0.00 0.00 0.00 95 1020.2
20260905213203 72 0 0.0 0.0 0.00 0.00 0.00 94 1020.3
20260905213103 72 0 0.0 0.0 0.00 0.00 0.00 94 1020.2
20260905213003 72 0 0.0 0.0 0.00 0.00 0.00 94 1020.2
20260905212903 72 41 0.0 1.0 0.00 0.00 0.00 94 1020.1
20260905212803 72 43 0.0 2.0 0.00 0.00 0.00 94 1020.4
20260905212724 72 41 0.0 2.0 0.00 0.00 0.00 94 1020.4
20260905212603 72 41 0.0 2.0 0.00 0.00 0.00 94 1020.0
20260905212524 72 40 1.0 2.0 0.00 0.00 0.00 94 1020.2
20260905212403 73 40 1.0 2.0 0.00 0.00 0.00 93 1020.3
20260905212306 73 40 1.0 2.0 0.00 0.00 0.00 93 1020.3
20260905212203 73 40 1.0 2.0 0.00 0.00 0.00 93 1020.3
20260905212103 73 40 1.0 2.0 0.00 0.00 0.00 93 1020.0
20260905212003 73 39 1.0 2.0 0.00 0.00 0.00 93 1020.2
20260905211903 73 41 1.0 2.0 0.00 0.00 0.00 93 1020.1
20260905211824 73 40 1.0 2.0 0.00 0.00 0.00 93 1020.3
20260905211724 73 41 1.0 2.0 0.00 0.00 0.00 92 1020.2
20260905211603 73 42 1.0 2.0 0.00 0.00 0.00 92 1020.1
20260905211503 73 43 1.0 2.0 0.00 0.00 0.00 92 1020.1
20260905211403 73 44 1.0 2.0 0.00 0.00 0.00 92 1020.2
20260905211303 73 44 1.0 2.0 0.00 0.00 0.00 92 1020.1
20260905211203 73 43 1.0 2.0 0.00 0.00 0.00 92 1020.2
20260905211103 73 44 1.0 2.0 0.00 0.00 0.00 92 1020.2
20260905211003 73 45 1.0 2.0 0.00 0.00 0.00 92 1020.2
20260905210903 73 46 1.0 2.0 0.00 0.00 0.00 93 1020.1
20260905210803 73 44 0.0 1.0 0.00 0.00 0.00 93 1020.4
20260905210703 73 43 0.0 1.0 0.00 0.00 0.00 93 1020.2
20260905210603 73 43 0.0 1.0 0.00 0.00 0.00 93 1020.3
20260905210503 73 44 0.0 1.0 0.00 0.00 0.00 93 1020.2
20260905210424 73 37 0.0 1.0 0.00 0.00 0.00 93 1020.1
20260905210303 73 31 0.0 1.0 0.00 0.00 0.00 93 1020.1
20260905210203 73 31 0.0 1.0 0.00 0.00 0.00 93 1020.2
20260905210024 73 31 0.0 1.0 0.00 0.00 0.00 92 1020.3
20260905205903 73 31 0.0 1.0 0.00 0.00 0.00 92 1020.3
20260905205803 73 31 0.0 1.0 0.00 0.00 0.00 92 1020.2
20260905205703 73 31 0.0 1.0 0.00 0.00 0.00 92 1020.3
20260905205603 73 31 0.0 1.0 0.00 0.00 0.00 92 1020.3
20260905205503 73 31 0.0 1.0 0.00 0.00 0.00 92 1020.3
20260905205403 73 31 0.0 1.0 0.00 0.00 0.00 92 1020.2
20260905205306 73 31 0.0 1.0 0.00 0.00 0.00 92 1020.4
20260905205224 73 31 0.0 1.0 0.00 0.00 0.00 92 1020.2
20260905205103 73 0 0.0 0.0 0.00 0.00 0.00 92 1020.2
20260905205003 73 0 0.0 0.0 0.00 0.00 0.00 92 1020.2
20260905204903 73 31 0.0 1.0 0.00 0.00 0.00 92 1020.3
20260905204803 73 31 0.0 1.0 0.00 0.00 0.00 92 1020.2
20260905204703 73 31 0.0 1.0 0.00 0.00 0.00 91 1020.3
20260905204603 73 31 0.0 1.0 0.00 0.00 0.00 91 1020.2
20260905204524 73 31 0.0 1.0 0.00 0.00 0.00 91 1020.2
20260905204424 73 31 0.0 1.0 0.00 0.00 0.00 91 1020.2
20260905204303 73 31 0.0 1.0 0.00 0.00 0.00 91 1020.2
20260905204203 73 31 0.0 1.0 0.00 0.00 0.00 91 1020.1
20260905204103 73 31 0.0 1.0 0.00 0.00 0.00 91 1020.1
20260905204003 73 31 0.0 1.0 0.00 0.00 0.00 91 1020.3
20260905203903 73 0 0.0 0.0 0.00 0.00 0.00 91 1020.3
20260905203803 73 31 0.0 1.0 0.00 0.00 0.00 91 1020.3
20260905203724 73 31 0.0 1.0 0.00 0.00 0.00 91 1020.4
20260905203603 73 31 0.0 1.0 0.00 0.00 0.00 91 1020.3
20260905203503 73 31 0.0 1.0 0.00 0.00 0.00 90 1020.1
20260905203403 73 31 0.0 1.0 0.00 0.00 0.00 90 1020.3
20260905203303 73 32 0.0 1.0 0.00 0.00 0.00 91 1020.3
20260905203203 73 32 0.0 1.0 0.00 0.00 0.00 91 1020.4
20260905203103 73 29 1.0 1.0 0.00 0.00 0.00 90 1020.4
20260905203003 73 29 1.0 1.0 0.00 0.00 0.00 90 1020.4
20260905202903 73 27 1.0 1.0 0.00 0.00 0.00 90 1020.4
20260905202824 73 27 1.0 1.0 0.00 0.00 0.00 90 1020.3
20260905202703 74 26 1.0 1.0 0.00 0.00 0.00 90 1020.1
20260905202603 74 26 0.0 1.0 0.00 0.00 0.00 90 1020.3
20260905202503 74 25 0.0 1.0 0.00 0.00 0.00 90 1020.2
20260905202403 74 25 0.0 1.0 0.00 0.00 0.00 89 1020.3
20260905202306 74 22 0.0 1.0 0.00 0.00 0.00 89 1020.2
20260905202203 75 16 0.0 1.0 0.00 0.00 0.00 88 1020.1
20260905202103 75 10 0.0 1.0 0.00 0.00 0.00 87 1020.0
20260905202003 75 5 0.0 1.0 0.00 0.00 0.00 86 1020.3
20260905201924 75 359 0.0 1.0 0.00 0.00 0.00 85 1020.2
20260905201803 75 358 0.0 1.0 0.00 0.00 0.00 84 1020.2
20260905201703 76 358 0.0 1.0 0.00 0.00 0.00 84 1020.3
20260905201603 76 358 0.0 1.0 0.00 0.00 0.00 84 1020.1
20260905201503 76 357 1.0 1.0 0.00 0.00 0.00 83 1020.1
20260905201403 76 357 1.0 1.0 0.00 0.00 0.00 83 1020.2
20260905201303 76 357 1.0 1.0 0.00 0.00 0.00 82 1020.0
20260905201203 76 355 1.0 1.0 0.00 0.00 0.00 81 1020.1
20260905201103 76 355 1.0 1.0 0.00 0.00 0.00 81 1019.9
20260905201024 76 355 1.0 1.0 0.00 0.00 0.00 81 1019.9
20260905200903 76 355 1.0 1.0 0.00 0.00 0.00 80 1020.0
20260905200824 76 356 1.0 2.0 0.00 0.00 0.00 81 1019.8
20260905200703 76 356 1.0 2.0 0.00 0.00 0.00 82 1019.9
20260905200603 76 357 1.0 2.0 0.00 0.00 0.00 82 1020.0
20260905200503 76 358 1.0 2.0 0.00 0.00 0.00 82 1020.0
20260905200403 76 359 1.0 2.0 0.00 0.00 0.00 82 1020.0
20260905200303 76 360 1.0 2.0 0.00 0.00 0.00 82 1020.0
20260905200203 76 1 1.0 2.0 0.00 0.00 0.00 81 1020.0
20260905200003 76 2 1.0 2.0 0.00 0.00 0.00 82 1019.9
20260905195903 76 2 1.0 2.0 0.00 0.00 0.00 83 1020.0
20260905195803 76 3 1.0 2.0 0.00 0.00 0.00 83 1019.8
20260905195724 76 3 1.0 2.0 0.00 0.00 0.00 83 1019.8
20260905195603 77 5 1.0 2.0 0.00 0.00 0.00 82 1019.8
20260905195503 77 8 0.0 2.0 0.00 0.00 0.00 82 1019.7
20260905195403 77 12 0.0 1.0 0.00 0.00 0.00 80 1019.9
20260905195306 77 12 0.0 1.0 0.00 0.00 0.00 80 1019.9
20260905195203 77 13 0.0 1.0 0.00 0.00 0.00 79 1020.0
20260905195103 78 13 0.0 1.0 0.00 0.00 0.00 77 1020.0
20260905195003 78 360 0.0 2.0 0.00 0.00 0.00 77 1020.0
20260905194903 78 5 0.0 2.0 0.00 0.00 0.00 77 1019.9
20260905194803 78 10 1.0 2.0 0.00 0.00 0.00 76 1020.1
20260905194724 78 10 1.0 2.0 0.00 0.00 0.00 76 1020.0
20260905194604 78 14 1.0 2.0 0.00 0.00 0.00 76 1020.0
20260905194503 78 44 1.0 4.0 0.00 0.00 0.00 75 1020.0
20260905194403 78 51 1.0 4.0 0.00 0.00 0.00 75 1019.9
20260905194303 78 55 1.0 4.0 0.00 0.00 0.00 75 1019.9
20260905194203 78 55 1.0 4.0 0.00 0.00 0.00 74 1020.2
20260905194103 78 56 1.0 4.0 0.00 0.00 0.00 74 1019.9
20260905194003 79 63 1.0 4.0 0.00 0.00 0.00 73 1020.1
20260905193924 79 63 1.0 4.0 0.00 0.00 0.00 73 1020.1
20260905193803 79 63 1.0 4.0 0.00 0.00 0.00 72 1020.1
20260905193703 79 59 1.0 4.0 0.00 0.00 0.00 71 1020.0
20260905193603 79 56 1.0 4.0 0.00 0.00 0.00 71 1020.0
20260905193504 79 52 1.0 4.0 0.00 0.00 0.00 70 1020.2
20260905193403 79 33 1.0 2.0 0.00 0.00 0.00 68 1019.9
20260905193303 79 27 1.0 3.0 0.00 0.00 0.00 66 1020.2
20260905193203 79 22 1.0 3.0 0.00 0.00 0.00 67 1020.0
20260905193103 79 22 1.0 3.0 0.00 0.00 0.00 67 1019.8
20260905193003 79 21 1.0 3.0 0.00 0.00 0.00 67 1019.9
20260905192903 79 22 1.0 3.0 0.00 0.00 0.00 68 1020.0
20260905192803 79 21 1.0 3.0 0.00 0.00 0.00 67 1020.0
20260905192703 79 21 1.0 3.0 0.00 0.00 0.00 68 1019.9
20260905192603 79 20 1.0 3.0 0.00 0.00 0.00 68 1019.9
20260905192503 79 20 2.0 3.0 0.00 0.00 0.00 68 1019.8
20260905192403 78 20 2.0 3.0 0.00 0.00 0.00 68 1019.9
20260905192305 78 20 2.0 3.0 0.00 0.00 0.00 67 1019.8
20260905192224 78 20 2.0 3.0 0.00 0.00 0.00 67 1019.8
20260905192103 78 20 1.0 3.0 0.00 0.00 0.00 68 1019.8
20260905192003 78 20 1.0 3.0 0.00 0.00 0.00 68 1019.6
20260905191903 78 20 1.0 3.0 0.00 0.00 0.00 69 1019.6
20260905191803 78 18 1.0 2.0 0.00 0.00 0.00 72 1019.6
20260905191724 78 18 1.0 2.0 0.00 0.00 0.00 72 1019.5
20260905191603 78 16 1.0 2.0 0.00 0.00 0.00 73 1019.7
20260905191503 78 17 1.0 2.0 0.00 0.00 0.00 72 1019.6
20260905191424 78 17 1.0 2.0 0.00 0.00 0.00 73 1019.5
20260905191303 78 17 0.0 1.0 0.00 0.00 0.00 72 1019.6
20260905191203 79 17 0.0 1.0 0.00 0.00 0.00 72 1019.4
20260905191124 79 17 0.0 1.0 0.00 0.00 0.00 72 1019.4
20260905191003 79 16 0.0 1.0 0.00 0.00 0.00 71 1019.3
20260905190903 79 16 1.0 1.0 0.00 0.00 0.00 70 1019.4
20260905190804 79 18 1.0 1.0 0.00 0.00 0.00 69 1019.3
20260905190704 79 19 1.0 1.0 0.00 0.00 0.00 69 1019.2
20260905190603 79 21 0.0 1.0 0.00 0.00 0.00 69 1019.1
20260905190503 79 21 0.0 1.0 0.00 0.00 0.00 69 1019.1
20260905190424 79 24 0.0 1.0 0.00 0.00 0.00 69 1019.2
20260905190324 79 26 1.0 2.0 0.00 0.00 0.00 70 1019.2
20260905190203 79 26 1.0 2.0 0.00 0.00 0.00 70 1019.0
20260905190003 79 24 1.0 2.0 0.00 0.00 0.00 70 1019.1
20260905185903 79 21 1.0 2.0 0.00 0.00 0.00 70 1019.1
20260905185803 79 20 1.0 2.0 0.00 0.00 0.00 70 1019.0
20260905185703 79 18 1.0 2.0 0.00 0.00 0.00 69 1019.0
20260905185624 79 18 1.0 2.0 0.00 0.00 0.00 69 1019.0
20260905185503 79 13 1.0 2.0 0.00 0.00 0.00 69 1019.1
20260905185403 79 10 1.0 2.0 0.00 0.00 0.00 68 1018.9
20260905185305 80 5 1.0 2.0 0.00 0.00 0.00 68 1019.1
20260905185203 80 6 1.0 2.0 0.00 0.00 0.00 67 1019.2
20260905185103 80 6 1.0 2.0 0.00 0.00 0.00 66 1019.2
20260905185003 80 6 1.0 2.0 0.00 0.00 0.00 66 1019.2
20260905184903 80 7 1.0 2.0 0.00 0.00 0.00 66 1019.0
20260905184803 80 9 1.0 2.0 0.00 0.00 0.00 66 1019.1
20260905184724 80 8 1.0 3.0 0.00 0.00 0.00 65 1019.0
20260905184604 80 8 1.0 3.0 0.00 0.00 0.00 65 1018.9
20260905184503 80 12 1.0 3.0 0.00 0.00 0.00 65 1019.1
20260905184403 80 8 1.0 3.0 0.00 0.00 0.00 66 1018.9
20260905184303 80 8 2.0 3.0 0.00 0.00 0.00 65 1018.9
20260905184203 80 9 2.0 3.0 0.00 0.00 0.00 65 1019.0
20260905184124 81 7 2.0 3.0 0.00 0.00 0.00 65 1019.0
20260905184024 81 7 2.0 4.0 0.00 0.00 0.00 64 1018.9
20260905183903 81 7 2.0 4.0 0.00 0.00 0.00 64 1019.0
20260905183803 81 6 2.0 4.0 0.00 0.00 0.00 64 1018.9
20260905183724 82 6 2.0 4.0 0.00 0.00 0.00 63 1019.0
20260905183624 82 7 2.0 4.0 0.00 0.00 0.00 64 1018.8
20260905183503 82 4 2.0 4.0 0.00 0.00 0.00 64 1018.8
20260905183403 82 5 2.0 4.0 0.00 0.00 0.00 63 1018.9
20260905183303 82 6 2.0 4.0 0.00 0.00 0.00 63 1018.9
20260905183203 82 5 2.0 4.0 0.00 0.00 0.00 63 1018.6
20260905183124 82 7 2.0 4.0 0.00 0.00 0.00 63 1018.8
20260905183024 82 7 2.0 4.0 0.00 0.00 0.00 63 1018.7
20260905182903 82 7 1.0 3.0 0.00 0.00 0.00 64 1018.9
20260905182803 83 4 2.0 3.0 0.00 0.00 0.00 63 1018.8
20260905182703 83 2 2.0 3.0 0.00 0.00 0.00 63 1018.8
20260905182603 83 1 2.0 3.0 0.00 0.00 0.00 63 1018.7
20260905182524 83 360 2.0 3.0 0.00 0.00 0.00 62 1018.5
20260905182403 83 1 2.0 3.0 0.00 0.00 0.00 61 1018.6
20260905182305 84 360 2.0 3.0 0.00 0.00 0.00 60 1018.6
20260905182203 84 360 2.0 3.0 0.00 0.00 0.00 60 1018.5
20260905182103 84 359 2.0 3.0 0.00 0.00 0.00 58 1018.5
20260905182003 84 359 1.0 3.0 0.00 0.00 0.00 57 1018.5
20260905181903 84 359 1.0 3.0 0.00 0.00 0.00 57 1018.6
20260905181824 84 359 1.0 3.0 0.00 0.00 0.00 56 1018.6
20260905181703 85 360 1.0 2.0 0.00 0.00 0.00 56 1018.4
20260905181603 85 4 1.0 2.0 0.00 0.00 0.00 55 1018.5
20260905181503 85 5 1.0 2.0 0.00 0.00 0.00 54 1018.4
20260905181403 85 6 1.0 2.0 0.00 0.00 0.00 55 1018.3
20260905181303 86 6 1.0 2.0 0.00 0.00 0.00 53 1018.4
20260905181225 86 9 0.0 2.0 0.00 0.00 0.00 52 1018.5
20260905181124 86 12 0.0 1.0 0.00 0.00 0.00 52 1018.7
20260905181003 86 13 0.0 1.0 0.00 0.00 0.00 51 1018.5
20260905180903 86 13 0.0 1.0 0.00 0.00 0.00 50 1018.5
20260905180803 86 9 0.0 1.0 0.00 0.00 0.00 50 1018.5
20260905180703 86 9 0.0 1.0 0.00 0.00 0.00 50 1018.6
20260905180603 86 8 0.0 1.0 0.00 0.00 0.00 50 1018.7
20260905180503 86 3 0.0 1.0 0.00 0.00 0.00 50 1018.5
20260905180404 86 3 0.0 1.0 0.00 0.00 0.00 51 1018.3
20260905180303 86 3 0.0 1.0 0.00 0.00 0.00 52 1018.7
20260905180203 86 1 0.0 1.0 0.00 0.00 0.00 49 1018.6
20260905180003 87 357 0.0 1.0 0.00 0.00 0.00 51 1018.5
20260905175903 87 356 0.0 1.0 0.00 0.00 0.00 51 1018.4
20260905175824 87 353 0.0 1.0 0.00 0.00 0.00 49 1018.5
20260905175703 87 339 0.0 2.0 0.00 0.00 0.00 52 1018.6
20260905175603 87 333 0.0 2.0 0.00 0.00 0.00 50 1018.3
20260905175503 87 330 0.0 2.0 0.00 0.00 0.00 52 1018.5
20260905175403 87 330 0.0 2.0 0.00 0.00 0.00 50 1018.5
20260905175324 87 332 1.0 2.0 0.00 0.00 0.00 50 1018.4
20260905175203 87 332 1.0 2.0 0.00 0.00 0.00 51 1018.5
20260905175103 87 333 1.0 3.0 0.00 0.00 0.00 52 1018.4
20260905175003 87 332 1.0 3.0 0.00 0.00 0.00 50 1018.4
20260905174903 87 333 1.0 3.0 0.00 0.00 0.00 50 1018.2
20260905174824 87 332 1.0 3.0 0.00 0.00 0.00 49 1018.4
20260905174724 86 336 1.0 3.0 0.00 0.00 0.00 49 1018.4
20260905174603 86 339 1.0 3.0 0.00 0.00 0.00 49 1018.4
20260905174503 86 341 1.0 3.0 0.00 0.00 0.00 50 1018.2
20260905174403 86 341 2.0 3.0 0.00 0.00 0.00 49 1018.4
20260905174303 86 342 2.0 3.0 0.00 0.00 0.00 49 1018.3
20260905174203 86 335 2.0 3.0 0.00 0.00 0.00 49 1018.2
20260905174103 86 332 2.0 3.0 0.00 0.00 0.00 50 1018.2
20260905174024 85 335 2.0 3.0 0.00 0.00 0.00 51 1018.2
20260905173903 85 329 2.0 3.0 0.00 0.00 0.00 51 1018.2
20260905173803 86 315 2.0 7.0 0.00 0.00 0.00 50 1018.1
20260905173703 86 312 3.0 7.0 0.00 0.00 0.00 50 1018.2
20260905173603 86 314 3.0 7.0 0.00 0.00 0.00 50 1018.1
20260905173503 86 307 3.0 7.0 0.00 0.00 0.00 50 1018.3
20260905173403 86 307 3.0 7.0 0.00 0.00 0.00 51 1018.2
20260905173303 85 302 3.0 7.0 0.00 0.00 0.00 50 1018.1
20260905173203 85 297 3.0 7.0 0.00 0.00 0.00 51 1018.1
20260905173103 85 292 3.0 7.0 0.00 0.00 0.00 51 1018.2
20260905173003 85 292 3.0 7.0 0.00 0.00 0.00 51 1018.2
20260905172903 85 290 3.0 7.0 0.00 0.00 0.00 51 1018.1
20260905172804 85 296 3.0 7.0 0.00 0.00 0.00 50 1018.2
20260905172704 85 304 3.0 7.0 0.00 0.00 0.00 51 1018.0
20260905172603 85 304 3.0 7.0 0.00 0.00 0.00 51 1018.1
20260905172524 86 299 3.0 7.0 0.00 0.00 0.00 51 1018.1
20260905172424 86 304 3.0 7.0 0.00 0.00 0.00 51 1018.0
20260905172305 86 302 2.0 7.0 0.00 0.00 0.00 51 1017.9
20260905172204 86 305 2.0 7.0 0.00 0.00 0.00 51 1018.0
20260905172103 86 318 2.0 4.0 0.00 0.00 0.00 51 1017.9
20260905172003 86 327 2.0 4.0 0.00 0.00 0.00 51 1018.0
20260905171903 86 325 2.0 4.0 0.00 0.00 0.00 51 1017.6
20260905171804 86 326 2.0 4.0 0.00 0.00 0.00 51 1017.9
20260905171703 86 321 1.0 4.0 0.00 0.00 0.00 53 1017.8
20260905171624 86 327 1.0 4.0 0.00 0.00 0.00 53 1017.8
20260905171503 86 333 1.0 4.0 0.00 0.00 0.00 53 1017.9
20260905171403 86 340 1.0 2.0 0.00 0.00 0.00 59 1018.1
20260905171303 86 334 1.0 2.0 0.00 0.00 0.00 58 1017.7
20260905171203 86 331 1.0 2.0 0.00 0.00 0.00 58 1017.9
20260905171103 86 329 1.0 3.0 0.00 0.00 0.00 58 1018.0
20260905171003 86 328 1.0 3.0 0.00 0.00 0.00 56 1017.9
20260905170903 86 326 1.0 3.0 0.00 0.00 0.00 58 1017.8
20260905170803 86 316 2.0 6.0 0.00 0.00 0.00 58 1017.8
20260905170703 86 319 2.0 6.0 0.00 0.00 0.00 57 1017.9
20260905170624 86 318 2.0 6.0 0.00 0.00 0.00 57 1017.6
20260905170503 86 316 2.0 6.0 0.00 0.00 0.00 57 1017.6
20260905170403 86 310 2.0 6.0 0.00 0.00 0.00 56 1017.8
20260905170303 86 310 2.0 6.0 0.00 0.00 0.00 57 1017.8
20260905170203 86 309 2.0 6.0 0.00 0.00 0.00 56 1017.8
20260905170003 86 308 2.0 6.0 0.00 0.00 0.00 56 1017.9
20260905165903 86 307 2.0 6.0 0.00 0.00 0.00 56 1017.7
20260905165803 87 306 2.0 6.0 0.00 0.00 0.00 55 1017.7
20260905165703 87 313 1.0 4.0 0.00 0.00 0.00 55 1017.6
20260905165603 87 308 2.0 4.0 0.00 0.00 0.00 55 1017.8
20260905165504 87 304 2.0 4.0 0.00 0.00 0.00 54 1017.8
20260905165403 87 306 2.0 4.0 0.00 0.00 0.00 53 1017.8
20260905165306 87 307 1.0 4.0 0.00 0.00 0.00 55 1017.7
20260905165203 87 305 1.0 4.0 0.00 0.00 0.00 56 1017.8
20260905165124 87 307 1.0 4.0 0.00 0.00 0.00 57 1017.7
20260905165003 87 309 2.0 4.0 0.00 0.00 0.00 58 1017.8
20260905164903 86 309 2.0 4.0 0.00 0.00 0.00 60 1017.7
20260905164803 86 310 2.0 4.0 0.00 0.00 0.00 61 1017.7
20260905164703 85 312 2.0 4.0 0.00 0.00 0.00 63 1017.7
20260905164603 85 314 2.0 4.0 0.00 0.00 0.00 62 1017.8
20260905164503 85 320 2.0 3.0 0.00 0.00 0.00 63 1017.9
20260905164424 85 330 1.0 3.0 0.00 0.00 0.00 64 1017.7
20260905164324 85 335 1.0 3.0 0.00 0.00 0.00 64 1017.8
20260905164203 85 342 1.0 3.0 0.00 0.00 0.00 65 1017.7
20260905164103 85 345 1.0 3.0 0.00 0.00 0.00 64 1017.7
20260905164003 85 351 1.0 3.0 0.00 0.00 0.00 65 1017.8
20260905163903 85 351 2.0 3.0 0.00 0.00 0.00 65 1017.6
20260905163803 84 354 1.0 3.0 0.00 0.00 0.00 65 1017.4
20260905163703 84 354 2.0 3.0 0.00 0.00 0.00 65 1017.6
20260905163624 84 354 2.0 3.0 0.00 0.00 0.00 65 1017.6
20260905163503 85 352 2.0 4.0 0.00 0.00 0.00 65 1017.6
20260905163424 85 352 2.0 4.0 0.00 0.00 0.00 65 1017.6
20260905163303 85 354 3.0 4.0 0.00 0.00 0.00 64 1017.5
20260905163203 85 354 3.0 4.0 0.00 0.00 0.00 64 1017.5
20260905163103 85 354 3.0 4.0 0.00 0.00 0.00 64 1017.4
20260905163003 85 354 3.0 4.0 0.00 0.00 0.00 64 1017.4
20260905162903 85 352 3.0 4.0 0.00 0.00 0.00 64 1017.5
20260905162803 85 351 3.0 4.0 0.00 0.00 0.00 64 1017.6
20260905162704 85 350 3.0 4.0 0.00 0.00 0.00 64 1017.4
20260905162603 85 350 3.0 4.0 0.00 0.00 0.00 64 1017.4
20260905162503 85 351 3.0 4.0 0.00 0.00 0.00 63 1017.3
20260905162403 85 352 3.0 4.0 0.00 0.00 0.00 63 1017.3
20260905162305 86 351 3.0 4.0 0.00 0.00 0.00 63 1017.5
20260905162203 86 350 3.0 4.0 0.00 0.00 0.00 62 1017.5
20260905162103 86 351 2.0 4.0 0.00 0.00 0.00 63 1017.5
20260905162004 86 352 2.0 4.0 0.00 0.00 0.00 62 1017.6
20260905161903 86 353 2.0 4.0 0.00 0.00 0.00 62 1017.3
20260905161803 87 353 2.0 4.0 0.00 0.00 0.00 61 1017.4
20260905161703 87 358 2.0 3.0 0.00 0.00 0.00 60 1017.4
20260905161603 87 355 2.0 6.0 0.00 0.00 0.00 60 1017.4
20260905161503 87 355 2.0 6.0 0.00 0.00 0.00 59 1017.5
20260905161403 87 356 2.0 6.0 0.00 0.00 0.00 61 1017.3
20260905161304 87 357 2.0 6.0 0.00 0.00 0.00 60 1017.4
20260905161203 87 357 2.0 6.0 0.00 0.00 0.00 60 1017.4
20260905161103 87 358 2.0 6.0 0.00 0.00 0.00 59 1017.4
20260905161003 87 358 2.0 6.0 0.00 0.00 0.00 60 1017.4
20260905160903 87 356 2.0 6.0 0.00 0.00 0.00 60 1017.4
20260905160803 87 352 2.0 6.0 0.00 0.00 0.00 60 1017.4
20260905160703 87 350 2.0 6.0 0.00 0.00 0.00 61 1017.3
20260905160603 87 351 2.0 6.0 0.00 0.00 0.00 59 1017.3
20260905160503 87 354 2.0 4.0 0.00 0.00 0.00 60 1017.3
20260905160403 87 354 2.0 4.0 0.00 0.00 0.00 61 1017.2
20260905160303 87 354 2.0 4.0 0.00 0.00 0.00 60 1017.2
20260905160203 87 354 2.0 4.0 0.00 0.00 0.00 60 1017.2
20260905160124 87 353 2.0 4.0 0.00 0.00 0.00 59 1017.3
20260905160024 87 353 2.0 4.0 0.00 0.00 0.00 59 1017.2
20260905155903 88 354 2.0 4.0 0.00 0.00 0.00 59 1017.2
20260905155803 88 358 2.0 4.0 0.00 0.00 0.00 59 1017.4
20260905155703 88 357 2.0 4.0 0.00 0.00 0.00 58 1017.4
20260905155624 88 355 2.0 4.0 0.00 0.00 0.00 58 1017.3
20260905155524 88 357 2.0 4.0 0.00 0.00 0.00 58 1017.1
20260905155403 89 358 2.0 4.0 0.00 0.00 0.00 57 1017.3
20260905155306 89 359 2.0 4.0 0.00 0.00 0.00 57 1017.4
20260905155203 89 359 2.0 4.0 0.00 0.00 0.00 57 1017.3
20260905155103 89 358 2.0 4.0 0.00 0.00 0.00 57 1017.3
20260905155003 89 359 2.0 6.0 0.00 0.00 0.00 56 1017.4
20260905154903 90 359 2.0 6.0 0.00 0.00 0.00 56 1017.4
20260905154824 90 359 2.0 6.0 0.00 0.00 0.00 56 1017.4
20260905154703 89 360 2.0 6.0 0.00 0.00 0.00 57 1017.4
20260905154603 89 1 3.0 6.0 0.00 0.00 0.00 56 1017.2
20260905154503 89 1 3.0 6.0 0.00 0.00 0.00 56 1017.2
20260905154403 89 360 3.0 6.0 0.00 0.00 0.00 56 1017.2
20260905154303 89 2 3.0 6.0 0.00 0.00 0.00 57 1017.2
20260905154203 89 1 3.0 6.0 0.00 0.00 0.00 56 1017.4
20260905154103 89 2 3.0 6.0 0.00 0.00 0.00 57 1017.5
20260905154003 89 3 2.0 6.0 0.00 0.00 0.00 56 1017.4
20260905153924 88 2 2.0 4.0 0.00 0.00 0.00 57 1017.5
20260905153803 88 3 2.0 4.0 0.00 0.00 0.00 57 1017.6
20260905153703 88 2 2.0 4.0 0.00 0.00 0.00 57 1017.4
20260905153603 88 3 3.0 4.0 0.00 0.00 0.00 58 1017.4
20260905153503 88 4 3.0 4.0 0.00 0.00 0.00 57 1017.4
20260905153403 88 5 2.0 4.0 0.00 0.00 0.00 58 1017.4
20260905153324 88 5 2.0 4.0 0.00 0.00 0.00 58 1017.4
20260905153224 88 2 2.0 3.0 0.00 0.00 0.00 58 1017.5
20260905153103 88 359 2.0 4.0 0.00 0.00 0.00 58 1017.4
20260905153003 88 359 2.0 4.0 0.00 0.00 0.00 58 1017.4
20260905152902 88 352 3.0 6.0 0.00 0.00 0.00 58 1017.6
20260905152803 88 351 3.0 6.0 0.00 0.00 0.00 59 1017.5
20260905152703 88 349 3.0 6.0 0.00 0.00 0.00 59 1017.7
20260905152602 88 350 3.0 6.0 0.00 0.00 0.00 58 1017.4
20260905152503 88 348 3.0 6.0 0.00 0.00 0.00 58 1017.6
20260905152402 88 348 3.0 6.0 0.00 0.00 0.00 59 1017.5
20260905152306 88 344 4.0 7.0 0.00 0.00 0.00 58 1017.4
20260905152203 89 343 4.0 7.0 0.00 0.00 0.00 58 1017.5
20260905152102 89 343 4.0 7.0 0.00 0.00 0.00 57 1017.6
20260905152024 89 345 4.0 7.0 0.00 0.00 0.00 57 1017.5
20260905151902 89 347 4.0 7.0 0.00 0.00 0.00 57 1017.5
20260905151802 89 346 4.0 7.0 0.00 0.00 0.00 58 1017.5
20260905151703 89 347 4.0 7.0 0.00 0.00 0.00 58 1017.5
20260905151602 89 349 4.0 7.0 0.00 0.00 0.00 58 1017.5
20260905151502 89 349 4.0 7.0 0.00 0.00 0.00 57 1017.5
20260905151403 89 347 4.0 7.0 0.00 0.00 0.00 57 1017.6
20260905151324 89 347 4.0 7.0 0.00 0.00 0.00 57 1017.6
20260905151202 89 349 4.0 7.0 0.00 0.00 0.00 58 1017.5
20260905151102 89 348 4.0 7.0 0.00 0.00 0.00 58 1017.6
20260905151024 89 348 4.0 7.0 0.00 0.00 0.00 58 1017.6
20260905150903 89 349 4.0 7.0 0.00 0.00 0.00 58 1017.6
20260905150802 89 349 4.0 7.0 0.00 0.00 0.00 58 1017.5
20260905150723 89 350 4.0 7.0 0.00 0.00 0.00 58 1017.5
20260905150602 89 350 4.0 7.0 0.00 0.00 0.00 59 1017.7
20260905150503 90 348 4.0 7.0 0.00 0.00 0.00 58 1017.6
20260905150402 90 349 3.0 7.0 0.00 0.00 0.00 57 1017.6
20260905150303 90 349 3.0 7.0 0.00 0.00 0.00 57 1017.8
20260905150203 90 348 3.0 7.0 0.00 0.00 0.00 57 1017.7
20260905150003 91 345 3.0 7.0 0.00 0.00 0.00 57 1017.7
20260905145903 91 341 2.0 4.0 0.00 0.00 0.00 56 1017.6
20260905145824 91 341 2.0 4.0 0.00 0.00 0.00 56 1017.6
20260905145703 91 341 2.0 4.0 0.00 0.00 0.00 57 1017.6
20260905145603 91 340 2.0 4.0 0.00 0.00 0.00 56 1017.6
20260905145503 91 340 2.0 4.0 0.00 0.00 0.00 57 1017.5
20260905145403 91 340 2.0 4.0 0.00 0.00 0.00 57 1017.5
20260905145306 91 335 2.0 4.0 0.00 0.00 0.00 57 1017.6
20260905145203 91 337 2.0 4.0 0.00 0.00 0.00 56 1017.6
20260905145103 92 329 2.0 4.0 0.00 0.00 0.00 57 1017.6
20260905145003 91 332 2.0 4.0 0.00 0.00 0.00 56 1017.8
20260905144902 91 332 2.0 4.0 0.00 0.00 0.00 59 1017.5
20260905144824 91 328 2.0 4.0 0.00 0.00 0.00 58 1017.7
20260905144703 90 327 2.0 4.0 0.00 0.00 0.00 58 1017.7
20260905144603 90 325 2.0 4.0 0.00 0.00 0.00 60 1017.6
20260905144524 90 317 2.0 4.0 0.00 0.00 0.00 58 1017.7
20260905144403 90 321 2.0 4.0 0.00 0.00 0.00 57 1017.6
20260905144303 90 323 2.0 4.0 0.00 0.00 0.00 58 1017.8
20260905144224 90 322 2.0 4.0 0.00 0.00 0.00 59 1017.8
20260905144103 90 322 3.0 4.0 0.00 0.00 0.00 57 1017.5
20260905144002 90 334 3.0 6.0 0.00 0.00 0.00 57 1017.5
20260905143903 90 337 3.0 6.0 0.00 0.00 0.00 57 1017.8
20260905143802 90 344 3.0 6.0 0.00 0.00 0.00 57 1017.5
20260905143703 89 344 3.0 6.0 0.00 0.00 0.00 59 1017.7
20260905143603 89 340 3.0 6.0 0.00 0.00 0.00 59 1017.6
20260905143503 89 345 3.0 6.0 0.00 0.00 0.00 60 1017.5
20260905143424 89 343 3.0 6.0 0.00 0.00 0.00 60 1017.7
20260905143324 89 334 3.0 6.0 0.00 0.00 0.00 61 1017.7
20260905143224 89 334 3.0 6.0 0.00 0.00 0.00 60 1017.8
20260905143103 89 334 2.0 6.0 0.00 0.00 0.00 59 1017.8
20260905143003 89 333 2.0 6.0 0.00 0.00 0.00 59 1017.9
20260905142903 90 327 2.0 6.0 0.00 0.00 0.00 58 1017.8
20260905142803 90 327 2.0 6.0 0.00 0.00 0.00 58 1017.8
20260905142702 90 325 2.0 6.0 0.00 0.00 0.00 57 1018.0
20260905142603 90 333 2.0 6.0 0.00 0.00 0.00 57 1017.7
20260905142502 90 331 2.0 6.0 0.00 0.00 0.00 60 1017.8
20260905142403 90 333 2.0 6.0 0.00 0.00 0.00 58 1017.7
20260905142305 90 343 2.0 4.0 0.00 0.00 0.00 59 1017.8
20260905142224 90 343 2.0 4.0 0.00 0.00 0.00 59 1017.8
20260905142103 90 344 2.0 4.0 0.00 0.00 0.00 59 1017.9
20260905142003 90 338 3.0 4.0 0.00 0.00 0.00 59 1017.8
20260905141924 90 338 3.0 6.0 0.00 0.00 0.00 60 1017.8
20260905141803 90 338 3.0 6.0 0.00 0.00 0.00 59 1017.6
20260905141702 90 338 3.0 6.0 0.00 0.00 0.00 56 1017.8
20260905141603 90 337 3.0 6.0 0.00 0.00 0.00 58 1017.7
20260905141503 90 337 3.0 6.0 0.00 0.00 0.00 58 1018.0
20260905141403 90 339 3.0 6.0 0.00 0.00 0.00 58 1017.9
20260905141303 90 336 3.0 6.0 0.00 0.00 0.00 57 1017.8
20260905141203 91 334 3.0 6.0 0.00 0.00 0.00 58 1017.9
20260905141103 91 327 3.0 6.0 0.00 0.00 0.00 58 1017.9
20260905141003 91 329 3.0 6.0 0.00 0.00 0.00 56 1017.9
20260905140924 91 329 3.0 6.0 0.00 0.00 0.00 56 1017.9
20260905140803 91 325 2.0 6.0 0.00 0.00 0.00 58 1017.8
20260905140703 91 326 2.0 6.0 0.00 0.00 0.00 58 1018.0
20260905140603 91 326 2.0 6.0 0.00 0.00 0.00 58 1018.0
20260905140503 91 323 2.0 6.0 0.00 0.00 0.00 57 1017.9
20260905140424 91 325 2.0 6.0 0.00 0.00 0.00 60 1017.8
20260905140303 91 324 2.0 6.0 0.00 0.00 0.00 57 1018.0
20260905140202 91 323 2.0 6.0 0.00 0.00 0.00 57 1017.8
20260905140003 91 337 2.0 6.0 0.00 0.00 0.00 58 1018.1
20260905135903 91 342 2.0 6.0 0.00 0.00 0.00 58 1017.9
20260905135803 91 342 2.0 6.0 0.00 0.00 0.00 58 1017.9
20260905135703 91 342 2.0 6.0 0.00 0.00 0.00 59 1017.9
20260905135624 91 342 3.0 6.0 0.00 0.00 0.00 57 1017.9
20260905135524 91 346 3.0 6.0 0.00 0.00 0.00 58 1017.9
20260905135403 90 345 2.0 4.0 0.00 0.00 0.00 59 1017.9
20260905135306 90 347 3.0 6.0 0.00 0.00 0.00 59 1017.9
20260905135203 90 346 3.0 6.0 0.00 0.00 0.00 57 1017.9
20260905135103 91 343 3.0 6.0 0.00 0.00 0.00 59 1018.0
20260905135003 91 344 3.0 6.0 0.00 0.00 0.00 58 1018.0
20260905134903 91 343 3.0 6.0 0.00 0.00 0.00 58 1018.1
20260905134803 91 342 2.0 6.0 0.00 0.00 0.00 59 1018.0
20260905134703 91 343 2.0 6.0 0.00 0.00 0.00 57 1018.0
20260905134603 91 342 2.0 6.0 0.00 0.00 0.00 57 1017.9
20260905134503 91 343 2.0 6.0 0.00 0.00 0.00 58 1018.0
20260905134424 92 344 2.0 6.0 0.00 0.00 0.00 56 1018.0
20260905134302 92 346 2.0 3.0 0.00 0.00 0.00 57 1018.0
20260905134224 92 346 2.0 3.0 0.00 0.00 0.00 56 1018.1
20260905134103 92 347 2.0 3.0 0.00 0.00 0.00 56 1018.0
20260905134003 92 350 2.0 4.0 0.00 0.00 0.00 57 1018.1
20260905133924 91 351 2.0 4.0 0.00 0.00 0.00 57 1018.1
20260905133803 91 351 2.0 4.0 0.00 0.00 0.00 59 1017.9
20260905133703 91 350 3.0 4.0 0.00 0.00 0.00 57 1018.0
20260905133603 91 350 3.0 4.0 0.00 0.00 0.00 58 1018.0
20260905133503 91 348 3.0 4.0 0.00 0.00 0.00 58 1018.2
20260905133403 91 348 2.0 4.0 0.00 0.00 0.00 58 1018.2
20260905133324 92 348 2.0 4.0 0.00 0.00 0.00 58 1018.0
20260905133203 92 348 2.0 4.0 0.00 0.00 0.00 58 1017.9
20260905133103 92 347 2.0 4.0 0.00 0.00 0.00 56 1018.0
20260905133003 92 347 2.0 4.0 0.00 0.00 0.00 57 1018.1
20260905132903 92 347 2.0 4.0 0.00 0.00 0.00 57 1018.3
20260905132803 92 345 2.0 4.0 0.00 0.00 0.00 57 1018.2
20260905132724 92 346 2.0 4.0 0.00 0.00 0.00 57 1018.3
20260905132603 91 346 2.0 4.0 0.00 0.00 0.00 57 1018.1
20260905132503 92 347 2.0 4.0 0.00 0.00 0.00 57 1018.2
20260905132403 92 347 2.0 4.0 0.00 0.00 0.00 55 1018.1
20260905132305 92 347 2.0 3.0 0.00 0.00 0.00 57 1018.2
20260905132203 92 347 2.0 3.0 0.00 0.00 0.00 56 1018.2
20260905132103 92 347 2.0 4.0 0.00 0.00 0.00 59 1018.2
20260905132003 92 347 2.0 4.0 0.00 0.00 0.00 59 1018.2
20260905131903 92 347 2.0 4.0 0.00 0.00 0.00 57 1018.2
20260905131803 92 348 2.0 4.0 0.00 0.00 0.00 58 1018.0
20260905131703 92 348 2.0 4.0 0.00 0.00 0.00 58 1018.0
20260905131603 91 343 2.0 4.0 0.00 0.00 0.00 59 1018.2
20260905131503 91 343 2.0 4.0 0.00 0.00 0.00 59 1018.2
20260905131403 91 343 2.0 4.0 0.00 0.00 0.00 57 1018.1
20260905131324 91 342 2.0 4.0 0.00 0.00 0.00 58 1018.2
20260905131203 91 342 2.0 4.0 0.00 0.00 0.00 57 1018.2
20260905131103 91 343 2.0 4.0 0.00 0.00 0.00 55 1018.3
20260905131003 91 343 2.0 4.0 0.00 0.00 0.00 58 1018.2
20260905130903 91 344 2.0 4.0 0.00 0.00 0.00 57 1018.4
20260905130803 91 343 2.0 4.0 0.00 0.00 0.00 56 1018.1
20260905130703 91 344 2.0 4.0 0.00 0.00 0.00 57 1018.4
20260905130603 91 347 2.0 4.0 0.00 0.00 0.00 57 1018.4
20260905130503 91 347 2.0 4.0 0.00 0.00 0.00 57 1018.4
20260905130403 90 347 2.0 4.0 0.00 0.00 0.00 58 1018.3
20260905130303 90 347 2.0 4.0 0.00 0.00 0.00 57 1018.4
20260905130203 90 347 2.0 4.0 0.00 0.00 0.00 57 1018.4
20260905130003 91 347 1.0 3.0 0.00 0.00 0.00 57 1018.4
20260905125903 91 346 1.0 3.0 0.00 0.00 0.00 58 1018.4
20260905125803 91 345 1.0 3.0 0.00 0.00 0.00 57 1018.4
20260905125724 91 346 1.0 3.0 0.00 0.00 0.00 57 1018.5
20260905125603 91 346 1.0 3.0 0.00 0.00 0.00 59 1018.5
20260905125524 90 346 2.0 4.0 0.00 0.00 0.00 60 1018.3
20260905125403 90 346 2.0 4.0 0.00 0.00 0.00 57 1018.5
20260905125305 90 347 2.0 4.0 0.00 0.00 0.00 58 1018.3
20260905125203 90 347 1.0 4.0 0.00 0.00 0.00 58 1018.3
20260905125103 90 347 2.0 4.0 0.00 0.00 0.00 60 1018.3
20260905125003 90 347 2.0 4.0 0.00 0.00 0.00 57 1018.3
20260905124903 90 347 2.0 4.0 0.00 0.00 0.00 58 1018.5
20260905124803 90 347 2.0 4.0 0.00 0.00 0.00 59 1018.4
20260905124703 90 348 2.0 4.0 0.00 0.00 0.00 59 1018.5
20260905124603 90 348 2.0 4.0 0.00 0.00 0.00 58 1018.4
20260905124503 90 348 2.0 4.0 0.00 0.00 0.00 58 1018.3
20260905124403 90 348 2.0 6.0 0.00 0.00 0.00 58 1018.4
20260905124303 90 347 2.0 6.0 0.00 0.00 0.00 60 1018.3
20260905124203 89 347 2.0 6.0 0.00 0.00 0.00 60 1018.6
20260905124104 90 347 2.0 6.0 0.00 0.00 0.00 59 1018.5
20260905124024 90 347 2.0 6.0 0.00 0.00 0.00 58 1018.7
20260905123903 90 347 2.0 6.0 0.00 0.00 0.00 58 1018.5
20260905123803 90 346 2.0 6.0 0.00 0.00 0.00 61 1018.5
20260905123703 90 334 2.0 6.0 0.00 0.00 0.00 61 1018.6
20260905123603 90 328 2.0 6.0 0.00 0.00 0.00 59 1018.5
20260905123503 90 326 1.0 6.0 0.00 0.00 0.00 59 1018.6
20260905123403 90 323 1.0 4.0 0.00 0.00 0.00 60 1018.6
20260905123324 90 324 1.0 4.0 0.00 0.00 0.00 59 1018.6
20260905123203 90 323 1.0 4.0 0.00 0.00 0.00 64 1018.6
20260905123103 90 322 1.0 4.0 0.00 0.00 0.00 63 1018.6
20260905123003 89 324 2.0 4.0 0.00 0.00 0.00 62 1018.7
20260905122903 89 327 2.0 4.0 0.00 0.00 0.00 61 1018.6
20260905122803 89 326 2.0 4.0 0.00 0.00 0.00 62 1018.6
20260905122703 89 336 2.0 3.0 0.00 0.00 0.00 61 1018.7
20260905122603 89 342 2.0 3.0 0.00 0.00 0.00 64 1018.6
20260905122524 89 342 2.0 3.0 0.00 0.00 0.00 62 1018.7
20260905122403 89 342 2.0 3.0 0.00 0.00 0.00 62 1018.6
20260905122306 89 340 2.0 3.0 0.00 0.00 0.00 62 1018.6
20260905122203 89 339 2.0 3.0 0.00 0.00 0.00 61 1018.7
20260905122103 89 339 2.0 3.0 0.00 0.00 0.00 61 1018.9
20260905122024 89 339 2.0 3.0 0.00 0.00 0.00 61 1018.9
20260905121903 89 338 2.0 4.0 0.00 0.00 0.00 63 1018.7
20260905121803 89 338 2.0 4.0 0.00 0.00 0.00 63 1018.7
20260905121703 89 340 2.0 4.0 0.00 0.00 0.00 64 1018.7
20260905121603 89 341 2.0 4.0 0.00 0.00 0.00 61 1018.8
20260905121503 89 341 2.0 4.0 0.00 0.00 0.00 62 1018.8
20260905121403 89 340 2.0 4.0 0.00 0.00 0.00 64 1018.9
20260905121324 88 341 2.0 4.0 0.00 0.00 0.00 64 1018.9
20260905121224 88 341 2.0 4.0 0.00 0.00 0.00 64 1018.7
20260905121103 88 342 2.0 4.0 0.00 0.00 0.00 63 1018.8
20260905121003 88 342 2.0 4.0 0.00 0.00 0.00 62 1018.8
20260905120903 88 343 2.0 4.0 0.00 0.00 0.00 62 1018.9
20260905120803 88 343 2.0 4.0 0.00 0.00 0.00 66 1018.9
20260905120703 88 343 2.0 4.0 0.00 0.00 0.00 64 1018.9
20260905120603 88 343 2.0 4.0 0.00 0.00 0.00 65 1018.8
20260905120524 88 343 2.0 4.0 0.00 0.00 0.00 63 1019.1
20260905120424 89 341 2.0 6.0 0.00 0.00 0.00 64 1018.9
20260905120303 88 341 2.0 6.0 0.00 0.00 0.00 62 1018.8
20260905120224 88 341 2.0 6.0 0.00 0.00 0.00 63 1018.9
20260905120003 88 342 2.0 6.0 0.00 0.00 0.00 64 1019.0
20260905115924 88 342 2.0 6.0 0.00 0.00 0.00 65 1019.2
20260905115824 88 342 2.0 6.0 0.00 0.00 0.00 65 1019.1
20260905115703 88 341 2.0 6.0 0.00 0.00 0.00 64 1019.0
20260905115624 89 340 2.0 6.0 0.00 0.00 0.00 64 1018.9
20260905115503 89 337 1.0 6.0 0.00 0.00 0.00 63 1019.1
20260905115403 89 336 1.0 6.0 0.00 0.00 0.00 62 1019.2
20260905115306 89 337 1.0 4.0 0.00 0.00 0.00 65 1019.1
20260905115203 89 338 1.0 4.0 0.00 0.00 0.00 63 1019.0
20260905115103 89 338 1.0 4.0 0.00 0.00 0.00 64 1019.1
20260905115003 89 338 1.0 4.0 0.00 0.00 0.00 62 1019.1
20260905114903 89 337 1.0 4.0 0.00 0.00 0.00 62 1019.0
20260905114803 89 338 1.0 4.0 0.00 0.00 0.00 64 1019.1
20260905114703 89 338 1.0 4.0 0.00 0.00 0.00 63 1019.2
20260905114603 89 338 1.0 4.0 0.00 0.00 0.00 64 1019.2
20260905114503 89 338 1.0 4.0 0.00 0.00 0.00 62 1019.1
20260905114403 89 341 1.0 4.0 0.00 0.00 0.00 65 1018.9
20260905114303 89 341 1.0 3.0 0.00 0.00 0.00 64 1019.2
20260905114203 89 341 1.0 3.0 0.00 0.00 0.00 63 1019.2
20260905114103 89 341 1.0 3.0 0.00 0.00 0.00 65 1019.1
20260905114003 88 333 2.0 3.0 0.00 0.00 0.00 66 1019.1
20260905113903 88 333 1.0 3.0 0.00 0.00 0.00 65 1019.2
20260905113803 88 332 2.0 3.0 0.00 0.00 0.00 64 1019.1
20260905113703 88 333 2.0 3.0 0.00 0.00 0.00 64 1019.0
20260905113603 88 322 2.0 3.0 0.00 0.00 0.00 67 1019.1
20260905113503 87 323 2.0 3.0 0.00 0.00 0.00 66 1019.1
20260905113403 87 320 2.0 3.0 0.00 0.00 0.00 68 1019.2
20260905113324 87 319 2.0 3.0 0.00 0.00 0.00 67 1019.2
20260905113224 87 322 2.0 3.0 0.00 0.00 0.00 67 1019.2
20260905113124 87 323 2.0 3.0 0.00 0.00 0.00 66 1019.3
20260905113003 87 324 2.0 3.0 0.00 0.00 0.00 65 1019.2
20260905112903 87 329 2.0 3.0 0.00 0.00 0.00 65 1019.1
20260905112803 87 332 2.0 3.0 0.00 0.00 0.00 66 1019.3
20260905112703 87 331 2.0 3.0 0.00 0.00 0.00 66 1019.1
20260905112624 87 336 2.0 3.0 0.00 0.00 0.00 66 1019.2
20260905112503 87 337 2.0 3.0 0.00 0.00 0.00 66 1019.1
20260905112424 87 333 2.0 3.0 0.00 0.00 0.00 66 1019.2
20260905112305 86 335 2.0 3.0 0.00 0.00 0.00 67 1019.2
20260905112224 86 334 2.0 3.0 0.00 0.00 0.00 67 1019.2
20260905112103 86 335 2.0 3.0 0.00 0.00 0.00 67 1019.3
20260905112024 87 330 2.0 3.0 0.00 0.00 0.00 68 1019.3
20260905111903 87 327 2.0 3.0 0.00 0.00 0.00 66 1019.3
20260905111803 87 325 2.0 3.0 0.00 0.00 0.00 65 1019.1
20260905111703 87 326 2.0 3.0 0.00 0.00 0.00 66 1019.2
20260905111603 87 330 2.0 4.0 0.00 0.00 0.00 65 1019.1
20260905111503 86 334 2.0 4.0 0.00 0.00 0.00 66 1019.3
20260905111403 86 339 2.0 4.0 0.00 0.00 0.00 68 1019.3
20260905111303 86 338 2.0 4.0 0.00 0.00 0.00 67 1019.3
20260905111224 86 337 2.0 4.0 0.00 0.00 0.00 67 1019.3
20260905111103 86 337 2.0 4.0 0.00 0.00 0.00 66 1019.3
20260905111003 86 336 2.0 4.0 0.00 0.00 0.00 66 1019.4
20260905110903 86 343 2.0 4.0 0.00 0.00 0.00 67 1019.3
20260905110803 86 343 2.0 4.0 0.00 0.00 0.00 64 1019.3
20260905110703 87 343 2.0 4.0 0.00 0.00 0.00 65 1019.3
20260905110603 87 342 2.0 3.0 0.00 0.00 0.00 67 1019.3
20260905110503 87 340 2.0 3.0 0.00 0.00 0.00 66 1019.3
20260905110403 86 336 2.0 3.0 0.00 0.00 0.00 65 1019.5
20260905110303 86 336 2.0 3.0 0.00 0.00 0.00 64 1019.4
20260905110224 86 338 2.0 3.0 0.00 0.00 0.00 65 1019.4
20260905110024 86 339 1.0 3.0 0.00 0.00 0.00 62 1019.5
20260905105903 86 339 1.0 3.0 0.00 0.00 0.00 63 1019.6
20260905105803 87 338 1.0 3.0 0.00 0.00 0.00 62 1019.4
20260905105703 87 337 1.0 3.0 0.00 0.00 0.00 60 1019.5
20260905105603 87 337 1.0 3.0 0.00 0.00 0.00 62 1019.3
20260905105524 87 339 1.0 3.0 0.00 0.00 0.00 60 1019.6
20260905105403 87 346 1.0 2.0 0.00 0.00 0.00 62 1019.6
20260905105306 87 347 1.0 2.0 0.00 0.00 0.00 63 1019.5
20260905105203 87 347 1.0 2.0 0.00 0.00 0.00 61 1019.6
20260905105124 87 347 1.0 2.0 0.00 0.00 0.00 64 1019.7
20260905105003 87 347 1.0 2.0 0.00 0.00 0.00 64 1019.5
20260905104903 87 347 1.0 2.0 0.00 0.00 0.00 61 1019.6
20260905104803 86 346 1.0 2.0 0.00 0.00 0.00 62 1019.7
20260905104703 86 346 1.0 2.0 0.00 0.00 0.00 65 1019.7
20260905104603 86 346 1.0 2.0 0.00 0.00 0.00 63 1019.6
20260905104503 86 346 1.0 2.0 0.00 0.00 0.00 63 1019.6
20260905104403 86 346 1.0 3.0 0.00 0.00 0.00 65 1019.7
20260905104303 86 345 1.0 3.0 0.00 0.00 0.00 64 1019.6
20260905104203 86 345 1.0 3.0 0.00 0.00 0.00 64 1019.8
20260905104103 86 345 1.0 3.0 0.00 0.00 0.00 63 1019.7
20260905104003 86 345 1.0 3.0 0.00 0.00 0.00 62 1019.7
20260905103903 86 345 1.0 3.0 0.00 0.00 0.00 61 1019.7
20260905103803 85 345 1.0 3.0 0.00 0.00 0.00 61 1019.5
20260905103703 85 345 1.0 3.0 0.00 0.00 0.00 63 1019.6
20260905103603 85 343 1.0 3.0 0.00 0.00 0.00 62 1019.6
20260905103503 85 343 1.0 3.0 0.00 0.00 0.00 62 1019.7
20260905103403 85 343 1.0 3.0 0.00 0.00 0.00 62 1019.6
20260905103303 84 343 1.0 2.0 0.00 0.00 0.00 63 1019.6
20260905103224 84 345 1.0 3.0 0.00 0.00 0.00 66 1019.6
20260905103103 84 345 1.0 3.0 0.00 0.00 0.00 64 1019.8
20260905103003 84 345 1.0 3.0 0.00 0.00 0.00 63 1019.7
20260905102903 84 345 1.0 3.0 0.00 0.00 0.00 64 1019.8
20260905102803 84 345 1.0 3.0 0.00 0.00 0.00 65 1019.6
20260905102703 84 345 1.0 3.0 0.00 0.00 0.00 66 1019.6
20260905102624 83 346 1.0 3.0 0.00 0.00 0.00 65 1019.5
20260905102503 83 347 1.0 3.0 0.00 0.00 0.00 69 1019.6
20260905102403 84 347 2.0 3.0 0.00 0.00 0.00 69 1019.6
20260905102306 84 347 1.0 3.0 0.00 0.00 0.00 68 1019.7
20260905102203 84 347 1.0 3.0 0.00 0.00 0.00 68 1019.7
20260905102103 84 346 1.0 3.0 0.00 0.00 0.00 69 1019.9
20260905102003 84 346 1.0 3.0 0.00 0.00 0.00 68 1019.7
20260905101924 84 346 1.0 3.0 0.00 0.00 0.00 68 1019.7
20260905101803 85 346 1.0 3.0 0.00 0.00 0.00 67 1019.7
20260905101703 85 346 1.0 3.0 0.00 0.00 0.00 69 1019.9
20260905101603 85 346 1.0 3.0 0.00 0.00 0.00 67 1019.9
20260905101503 85 347 1.0 3.0 0.00 0.00 0.00 67 1019.8
20260905101403 85 347 1.0 3.0 0.00 0.00 0.00 67 1019.7
20260905101303 85 347 1.0 3.0 0.00 0.00 0.00 69 1019.7
20260905101224 85 347 1.0 3.0 0.00 0.00 0.00 69 1019.7
20260905101103 85 347 1.0 3.0 0.00 0.00 0.00 67 1019.9
20260905101003 85 347 1.0 3.0 0.00 0.00 0.00 67 1019.9
20260905100903 85 347 1.0 3.0 0.00 0.00 0.00 66 1019.7
20260905100824 85 347 1.0 3.0 0.00 0.00 0.00 70 1019.9
20260905100703 85 347 1.0 3.0 0.00 0.00 0.00 69 1019.8
20260905100624 84 347 1.0 2.0 0.00 0.00 0.00 69 1019.8
20260905100503 84 347 1.0 2.0 0.00 0.00 0.00 71 1019.8
20260905100403 84 347 1.0 2.0 0.00 0.00 0.00 70 1019.7
20260905100303 84 347 1.0 2.0 0.00 0.00 0.00 72 1019.7
20260905100203 83 348 1.0 2.0 0.00 0.00 0.00 69 1019.8
20260905100003 82 348 0.0 2.0 0.00 0.00 0.00 72 1019.9
20260905095924 82 348 1.0 2.0 0.00 0.00 0.00 74 1019.9
20260905095803 82 348 1.0 2.0 0.00 0.00 0.00 72 1019.9
20260905095703 82 348 1.0 2.0 0.00 0.00 0.00 72 1019.9
20260905095603 82 346 1.0 2.0 0.00 0.00 0.00 71 1019.7
20260905095504 83 341 1.0 2.0 0.00 0.00 0.00 70 1020.0
20260905095424 83 340 1.0 2.0 0.00 0.00 0.00 70 1019.9
20260905095305 83 335 1.0 2.0 0.00 0.00 0.00 71 1019.8
20260905095203 82 325 1.0 3.0 0.00 0.00 0.00 71 1020.0
20260905095103 81 318 1.0 3.0 0.00 0.00 0.00 74 1019.9
20260905095003 81 318 2.0 3.0 0.00 0.00 0.00 75 1019.9
20260905094903 81 312 2.0 3.0 0.00 0.00 0.00 75 1019.8
20260905094803 81 305 2.0 3.0 0.00 0.00 0.00 75 1019.9
20260905094703 80 297 2.0 4.0 0.00 0.00 0.00 76 1019.8
20260905094603 80 293 2.0 4.0 0.00 0.00 0.00 77 1020.0
20260905094524 80 293 2.0 4.0 0.00 0.00 0.00 77 1020.0
20260905094403 80 291 2.0 4.0 0.00 0.00 0.00 76 1019.7
20260905094303 80 289 1.0 4.0 0.00 0.00 0.00 76 1019.9
20260905094203 80 294 1.0 4.0 0.00 0.00 0.00 78 1020.1
20260905094124 80 294 1.0 4.0 0.00 0.00 0.00 76 1019.8
20260905094003 81 302 1.0 4.0 0.00 0.00 0.00 76 1019.9
20260905093924 81 310 1.0 4.0 0.00 0.00 0.00 77 1019.9
20260905093803 81 310 1.0 4.0 0.00 0.00 0.00 76 1019.9
20260905093703 81 321 1.0 4.0 0.00 0.00 0.00 75 1019.8
20260905093624 80 347 1.0 2.0 0.00 0.00 0.00 76 1020.0
20260905093503 80 346 1.0 2.0 0.00 0.00 0.00 76 1020.0
20260905093424 79 346 1.0 2.0 0.00 0.00 0.00 76 1019.7
20260905093324 79 346 1.0 2.0 0.00 0.00 0.00 77 1019.8
20260905093203 79 346 1.0 2.0 0.00 0.00 0.00 77 1019.9
20260905093103 79 346 1.0 2.0 0.00 0.00 0.00 77 1019.8
20260905093003 79 346 1.0 2.0 0.00 0.00 0.00 77 1019.9
20260905092924 79 345 1.0 2.0 0.00 0.00 0.00 78 1019.9
20260905092803 79 345 1.0 2.0 0.00 0.00 0.00 78 1019.8
20260905092703 79 345 1.0 2.0 0.00 0.00 0.00 78 1019.8
20260905092603 79 345 1.0 2.0 0.00 0.00 0.00 78 1019.8
20260905092503 80 345 1.0 2.0 0.00 0.00 0.00 77 1019.9
20260905092403 80 345 1.0 2.0 0.00 0.00 0.00 77 1019.8
20260905092306 80 345 1.0 2.0 0.00 0.00 0.00 78 1020.1
20260905092203 80 345 1.0 2.0 0.00 0.00 0.00 78 1020.1
20260905092103 80 339 1.0 2.0 0.00 0.00 0.00 77 1019.9
20260905092003 80 340 1.0 2.0 0.00 0.00 0.00 78 1019.8
20260905091903 79 340 1.0 2.0 0.00 0.00 0.00 79 1019.9
20260905091803 79 340 1.0 2.0 0.00 0.00 0.00 78 1020.0
20260905091724 79 340 1.0 2.0 0.00 0.00 0.00 78 1020.0
20260905091603 79 342 1.0 2.0 0.00 0.00 0.00 78 1019.9
20260905091503 78 343 1.0 2.0 0.00 0.00 0.00 80 1020.0
20260905091403 78 343 1.0 2.0 0.00 0.00 0.00 79 1020.1
20260905091303 78 343 1.0 2.0 0.00 0.00 0.00 79 1020.1
20260905091224 78 345 1.0 3.0 0.00 0.00 0.00 79 1020.1
20260905091103 78 348 1.0 3.0 0.00 0.00 0.00 79 1020.1
20260905091003 78 348 1.0 3.0 0.00 0.00 0.00 80 1020.0
20260905090903 77 349 1.0 3.0 0.00 0.00 0.00 80 1020.0
20260905090803 77 350 1.0 3.0 0.00 0.00 0.00 82 1020.0
20260905090703 77 350 1.0 3.0 0.00 0.00 0.00 81 1019.9
20260905090603 77 349 1.0 3.0 0.00 0.00 0.00 81 1019.9
20260905090503 77 349 1.0 3.0 0.00 0.00 0.00 81 1019.9
20260905090403 77 346 1.0 3.0 0.00 0.00 0.00 81 1020.0
20260905090303 77 339 1.0 3.0 0.00 0.00 0.00 82 1020.1
20260905090224 77 337 1.0 3.0 0.00 0.00 0.00 82 1020.0
20260905090103 77 334 1.0 3.0 0.00 0.00 0.00 82 1019.9
20260905090003 76 335 1.0 3.0 0.00 0.00 0.00 83 1019.8
20260905085903 76 335 1.0 3.0 0.00 0.00 0.00 83 1020.0
20260905085803 76 335 1.0 3.0 0.00 0.00 0.00 83 1019.9
20260905085724 76 334 1.0 3.0 0.00 0.00 0.00 83 1020.0
20260905085603 76 332 2.0 4.0 0.00 0.00 0.00 83 1019.9
20260905085503 76 331 2.0 4.0 0.00 0.00 0.00 82 1020.0
20260905085403 76 330 2.0 4.0 0.00 0.00 0.00 82 1020.1
20260905085305 76 336 2.0 6.0 0.00 0.00 0.00 82 1020.0
20260905085224 76 342 2.0 6.0 0.00 0.00 0.00 83 1019.8
20260905085124 76 343 2.0 6.0 0.00 0.00 0.00 83 1019.9
20260905085003 76 343 2.0 6.0 0.00 0.00 0.00 84 1019.8
20260905084903 75 344 2.0 6.0 0.00 0.00 0.00 84 1020.0
20260905084803 75 344 2.0 6.0 0.00 0.00 0.00 84 1020.0
20260905084703 75 346 2.0 6.0 0.00 0.00 0.00 84 1020.0
20260905084603 75 349 2.0 6.0 0.00 0.00 0.00 84 1019.7
20260905084503 75 355 2.0 6.0 0.00 0.00 0.00 85 1020.0
20260905084403 75 356 2.0 6.0 0.00 0.00 0.00 85 1019.8
20260905084303 74 358 2.0 3.0 0.00 0.00 0.00 84 1019.8
20260905084203 74 358 2.0 3.0 0.00 0.00 0.00 85 1019.8
20260905084103 74 2 2.0 3.0 0.00 0.00 0.00 85 1020.0
20260905084003 74 1 2.0 3.0 0.00 0.00 0.00 85 1019.9
20260905083903 74 2 2.0 3.0 0.00 0.00 0.00 86 1020.1
20260905083803 74 2 2.0 3.0 0.00 0.00 0.00 86 1020.0
20260905083703 74 4 2.0 3.0 0.00 0.00 0.00 86 1019.9
20260905083603 74 4 2.0 3.0 0.00 0.00 0.00 86 1019.8
20260905083503 74 3 2.0 3.0 0.00 0.00 0.00 86 1020.1
20260905083403 74 3 2.0 3.0 0.00 0.00 0.00 86 1020.1
20260905083303 74 3 2.0 3.0 0.00 0.00 0.00 86 1020.2
20260905083203 74 3 1.0 3.0 0.00 0.00 0.00 85 1019.9
20260905083103 74 4 1.0 3.0 0.00 0.00 0.00 85 1019.9
20260905083024 74 5 1.0 3.0 0.00 0.00 0.00 85 1020.0
20260905082903 74 8 1.0 3.0 0.00 0.00 0.00 84 1019.8
20260905082824 74 11 1.0 3.0 0.00 0.00 0.00 84 1020.0
20260905082704 75 7 0.0 2.0 0.00 0.00 0.00 83 1020.1
20260905082603 75 9 0.0 1.0 0.00 0.00 0.00 83 1019.9
20260905082503 74 14 0.0 1.0 0.00 0.00 0.00 84 1020.0
20260905082424 74 1 0.0 2.0 0.00 0.00 0.00 84 1020.1
20260905082324 74 15 1.0 2.0 0.00 0.00 0.00 85 1019.9
20260905082203 74 16 1.0 2.0 0.00 0.00 0.00 85 1019.9
20260905082103 74 19 1.0 2.0 0.00 0.00 0.00 85 1020.0
20260905082003 73 26 1.0 2.0 0.00 0.00 0.00 85 1020.0
20260905081903 73 16 1.0 2.0 0.00 0.00 0.00 86 1019.9
20260905081803 73 17 1.0 2.0 0.00 0.00 0.00 86 1019.8
20260905081724 73 21 1.0 2.0 0.00 0.00 0.00 87 1019.9
20260905081603 73 22 1.0 2.0 0.00 0.00 0.00 87 1019.9
20260905081503 73 12 1.0 2.0 0.00 0.00 0.00 87 1019.9
20260905081403 73 7 1.0 2.0 0.00 0.00 0.00 87 1019.9
20260905081303 72 8 1.0 2.0 0.00 0.00 0.00 87 1019.8